Wetterdaten: Donnerstag, 26.05.2016
Datum Zeit Temp. Aussen Temp. o. S. +5cm Feuchte Auss BlattFeu 1 Luftdruck Regen Sonnenschein Regendauer Solar Windben Empfang
26.05.2016 00:00 12,4 C 11,1 C 10,0 C 87 % 0 lf 1015,2 hPa 0,0 l/m 0 min 0 min 0 W/m 6,3 km/h (2 Bft) 96,30 %
26.05.2016 00:02 12,4 C 11,7 C 10,6 C 87 % 0 lf 1015,2 hPa 0,0 l/m 0 min 0 min 0 W/m 8,4 km/h (2 Bft) 94,44 %
26.05.2016 00:06 12,4 C 11,7 C 10,6 C 88 % 0 lf 1015,2 hPa 0,0 l/m 0 min 0 min 0 W/m 6,3 km/h (2 Bft) 95,79 %
26.05.2016 00:08 12,4 C 11,7 C 10,6 C 88 % 0 lf 1015,2 hPa 0,0 l/m 0 min 0 min 0 W/m 0,0 km/h (0 Bft) 91,49 %
26.05.2016 00:10 12,3 C 11,7 C 10,6 C 88 % 0 lf 1015,2 hPa 0,0 l/m 0 min 0 min 0 W/m 0,0 km/h (0 Bft) 93,62 %
26.05.2016 00:12 12,3 C 11,7 C 10,6 C 88 % 0 lf 1015,2 hPa 0,0 l/m 0 min 0 min 0 W/m 2,1 km/h (1 Bft) 90,91 %
26.05.2016 00:14 12,3 C 11,7 C 10,6 C 89 % 0 lf 1015,2 hPa 0,0 l/m 0 min 0 min 0 W/m 2,1 km/h (1 Bft) 94,74 %
26.05.2016 00:16 12,3 C 11,7 C 10,6 C 88 % 0 lf 1015,2 hPa 0,0 l/m 0 min 0 min 0 W/m 0,0 km/h (0 Bft) 95,83 %
26.05.2016 00:18 12,3 C 11,7 C 10,6 C 89 % 0 lf 1015,3 hPa 0,0 l/m 0 min 0 min 0 W/m 0,0 km/h (0 Bft) 86,96 %
26.05.2016 00:20 12,3 C 11,7 C 10,6 C 89 % 0 lf 1015,3 hPa 0,0 l/m 0 min 0 min 0 W/m 0,0 km/h (0 Bft) 93,62 %
26.05.2016 00:22 12,3 C 11,7 C 10,6 C 89 % 0 lf 1015,3 hPa 0,0 l/m 0 min 0 min 0 W/m 0,0 km/h (0 Bft) 96,36 %
26.05.2016 00:24 12,3 C 11,1 C 10,6 C 89 % 0 lf 1015,3 hPa 0,0 l/m 0 min 0 min 0 W/m 0,0 km/h (0 Bft) 94,74 %
26.05.2016 00:26 12,2 C 11,1 C 10,6 C 89 % 0 lf 1015,2 hPa 0,0 l/m 0 min 0 min 0 W/m 2,1 km/h (1 Bft) 93,75 %
26.05.2016 00:28 12,2 C 11,1 C 10,6 C 89 % 0 lf 1015,2 hPa 0,0 l/m 0 min 0 min 0 W/m 2,1 km/h (1 Bft) 87,23 %
26.05.2016 00:30 12,2 C 11,1 C 10,6 C 89 % 0 lf 1015,2 hPa 0,0 l/m 0 min 0 min 0 W/m 0,0 km/h (0 Bft) 92,73 %
26.05.2016 00:32 12,2 C 11,7 C 10,6 C 89 % 0 lf 1015,2 hPa 0,0 l/m 0 min 0 min 0 W/m 0,0 km/h (0 Bft) 92,11 %
26.05.2016 00:34 12,2 C 11,7 C 10,6 C 89 % 0 lf 1015,3 hPa 0,0 l/m 0 min 0 min 0 W/m 0,0 km/h (0 Bft) 93,62 %
26.05.2016 00:36 12,2 C 11,1 C 10,6 C 89 % 0 lf 1015,2 hPa 0,0 l/m 0 min 0 min 0 W/m 2,1 km/h (1 Bft) 97,83 %
26.05.2016 00:38 12,2 C 11,7 C 10,6 C 89 % 0 lf 1015,2 hPa 0,0 l/m 0 min 0 min 0 W/m 4,2 km/h (1 Bft) 93,75 %
26.05.2016 00:40 12,2 C 11,7 C 10,6 C 89 % 0 lf 1015,2 hPa 0,0 l/m 0 min 0 min 0 W/m 2,1 km/h (1 Bft) 95,74 %
26.05.2016 00:42 12,2 C 11,7 C 10,6 C 89 % 0 lf 1015,2 hPa 0,0 l/m 0 min 0 min 0 W/m 0,0 km/h (0 Bft) 94,55 %
26.05.2016 00:44 12,2 C 11,7 C 10,6 C 89 % 0 lf 1015,3 hPa 0,0 l/m 0 min 0 min 0 W/m 2,1 km/h (1 Bft) 91,30 %
26.05.2016 00:46 12,2 C 11,1 C 10,6 C 89 % 0 lf 1015,3 hPa 0,0 l/m 0 min 0 min 0 W/m 2,1 km/h (1 Bft) 91,49 %
26.05.2016 00:48 12,1 C 11,1 C 10,0 C 89 % 0 lf 1015,3 hPa 0,0 l/m 0 min 0 min 0 W/m 4,2 km/h (1 Bft) 97,37 %
26.05.2016 00:50 12,1 C 11,1 C 10,0 C 90 % 0 lf 1015,3 hPa 0,0 l/m 0 min 0 min 0 W/m 2,1 km/h (1 Bft) 97,92 %
26.05.2016 00:52 12,1 C 11,1 C 10,0 C 90 % 0 lf 1015,3 hPa 0,0 l/m 0 min 0 min 0 W/m 2,1 km/h (1 Bft) 97,87 %
26.05.2016 00:54 12,1 C 11,1 C 10,0 C 90 % 0 lf 1015,2 hPa 0,0 l/m 0 min 0 min 0 W/m 0,0 km/h (0 Bft) 95,65 %
26.05.2016 00:56 12,1 C 11,1 C 10,0 C 89 % 0 lf 1015,2 hPa 0,0 l/m 0 min 0 min 0 W/m 0,0 km/h (0 Bft) 95,74 %
26.05.2016 00:58 12,1 C 10,6 C 10,0 C 89 % 0 lf 1015,2 hPa 0,0 l/m 0 min 0 min 0 W/m 0,0 km/h (0 Bft) 97,87 %
26.05.2016 01:00 12,1 C 10,6 C 10,0 C 90 % 0 lf 1015,2 hPa 0,0 l/m 0 min 0 min 0 W/m 0,0 km/h (0 Bft) 97,87 %
26.05.2016 01:02 12,0 C 10,6 C 10,0 C 90 % 0 lf 1015,2 hPa 0,0 l/m 0 min 0 min 0 W/m 2,1 km/h (1 Bft) 98,18 %
26.05.2016 01:04 12,0 C 10,6 C 10,0 C 90 % 0 lf 1015,2 hPa 0,0 l/m 0 min 0 min 0 W/m 0,0 km/h (0 Bft) 95,74 %
26.05.2016 01:06 12,0 C 10,6 C 10,0 C 90 % 0 lf 1015,2 hPa 0,0 l/m 0 min 0 min 0 W/m 4,2 km/h (1 Bft) 95,74 %
26.05.2016 01:08 11,9 C 10,6 C 10,0 C 90 % 0 lf 1015,2 hPa 0,0 l/m 0 min 0 min 0 W/m 4,2 km/h (1 Bft) 100,00 %
26.05.2016 01:10 11,9 C 10,6 C 10,0 C 90 % 0 lf 1015,2 hPa 0,0 l/m 0 min 0 min 0 W/m 0,0 km/h (0 Bft) 100,00 %
26.05.2016 01:12 11,9 C 10,6 C 10,0 C 90 % 0 lf 1015,2 hPa 0,0 l/m 0 min 0 min 0 W/m 0,0 km/h (0 Bft) 97,87 %
26.05.2016 01:14 11,9 C 10,6 C 10,0 C 90 % 0 lf 1015,2 hPa 0,0 l/m 0 min 0 min 0 W/m 0,0 km/h (0 Bft) 97,87 %
26.05.2016 01:16 11,9 C 10,6 C 10,0 C 90 % 0 lf 1015,2 hPa 0,0 l/m 0 min 0 min 0 W/m 0,0 km/h (0 Bft) 100,00 %
26.05.2016 01:18 11,8 C 11,1 C 10,0 C 90 % 0 lf 1015,2 hPa 0,0 l/m 0 min 0 min 0 W/m 2,1 km/h (1 Bft) 94,74 %
26.05.2016 01:20 11,8 C 11,1 C 10,0 C 90 % 0 lf 1015,3 hPa 0,0 l/m 0 min 0 min 0 W/m 2,1 km/h (1 Bft) 100,00 %
26.05.2016 01:22 11,8 C 11,1 C 10,0 C 90 % 0 lf 1015,2 hPa 0,0 l/m 0 min 0 min 0 W/m 0,0 km/h (0 Bft) 95,74 %
26.05.2016 01:24 11,8 C 10,6 C 10,0 C 90 % 0 lf 1015,2 hPa 0,0 l/m 0 min 0 min 0 W/m 0,0 km/h (0 Bft) 100,00 %
26.05.2016 01:26 11,8 C 10,6 C 10,0 C 90 % 0 lf 1015,3 hPa 0,0 l/m 0 min 0 min 0 W/m 0,0 km/h (0 Bft) 100,00 %
26.05.2016 01:28 11,7 C 10,6 C 10,0 C 90 % 0 lf 1015,2 hPa 0,0 l/m 0 min 0 min 0 W/m 0,0 km/h (0 Bft) 98,18 %
26.05.2016 01:30 11,7 C 10,6 C 10,0 C 90 % 0 lf 1015,2 hPa 0,0 l/m 0 min 0 min 0 W/m 0,0 km/h (0 Bft) 97,37 %
26.05.2016 01:32 11,7 C 10,6 C 10,0 C 90 % 0 lf 1015,2 hPa 0,0 l/m 0 min 0 min 0 W/m 0,0 km/h (0 Bft) 97,87 %
26.05.2016 01:34 11,7 C 10,6 C 10,0 C 90 % 0 lf 1015,2 hPa 0,0 l/m 0 min 0 min 0 W/m 0,0 km/h (0 Bft) 95,74 %
26.05.2016 01:36 11,7 C 10,6 C 10,0 C 90 % 0 lf 1015,2 hPa 0,0 l/m 0 min 0 min 0 W/m 0,0 km/h (0 Bft) 96,36 %
26.05.2016 01:38 11,6 C 10,6 C 10,0 C 90 % 0 lf 1015,2 hPa 0,0 l/m 0 min 0 min 0 W/m 0,0 km/h (0 Bft) 100,00 %
26.05.2016 01:40 11,6 C 10,6 C 10,0 C 90 % 0 lf 1015,2 hPa 0,0 l/m 0 min 0 min 0 W/m 0,0 km/h (0 Bft) 94,74 %
26.05.2016 01:42 11,6 C 10,6 C 10,0 C 90 % 0 lf 1015,2 hPa 0,0 l/m 0 min 0 min 0 W/m 0,0 km/h (0 Bft) 100,00 %
26.05.2016 01:44 11,6 C 10,6 C 10,0 C 90 % 0 lf 1015,2 hPa 0,0 l/m 0 min 0 min 0 W/m 0,0 km/h (0 Bft) 100,00 %
26.05.2016 01:46 11,6 C 10,6 C 10,0 C 90 % 0 lf 1015,1 hPa 0,0 l/m 0 min 0 min 0 W/m 0,0 km/h (0 Bft) 97,87 %
26.05.2016 01:48 11,6 C 10,0 C 10,0 C 90 % 1 lf 1015,2 hPa 0,0 l/m 0 min 0 min 0 W/m 0,0 km/h (0 Bft) 95,74 %
26.05.2016 01:50 11,6 C 10,0 C 9,4 C 90 % 1 lf 1015,2 hPa 0,0 l/m 0 min 0 min 0 W/m 0,0 km/h (0 Bft) 98,18 %
26.05.2016 01:52 11,5 C 10,0 C 9,4 C 91 % 1 lf 1015,1 hPa 0,0 l/m 0 min 0 min 0 W/m 0,0 km/h (0 Bft) 100,00 %
26.05.2016 01:54 11,5 C 10,0 C 9,4 C 91 % 1 lf 1015,2 hPa 0,0 l/m 0 min 0 min 0 W/m 0,0 km/h (0 Bft) 97,87 %
26.05.2016 01:56 11,5 C 10,0 C 9,4 C 91 % 1 lf 1015,2 hPa 0,0 l/m 0 min 0 min 0 W/m 0,0 km/h (0 Bft) 95,74 %
26.05.2016 01:58 11,4 C 10,0 C 8,9 C 90 % 1 lf 1015,2 hPa 0,0 l/m 0 min 0 min 0 W/m 0,0 km/h (0 Bft) 97,87 %
26.05.2016 02:00 11,4 C 10,0 C 8,9 C 90 % 1 lf 1015,1 hPa 0,0 l/m 0 min 0 min 0 W/m 0,0 km/h (0 Bft) 100,00 %
26.05.2016 02:02 11,4 C 10,0 C 8,9 C 90 % 1 lf 1015,1 hPa 0,0 l/m 0 min 0 min 0 W/m 0,0 km/h (0 Bft) 100,00 %
26.05.2016 02:04 11,4 C 10,0 C 8,9 C 91 % 1 lf 1015,1 hPa 0,0 l/m 0 min 0 min 0 W/m 0,0 km/h (0 Bft) 97,87 %
26.05.2016 02:06 11,4 C 9,4 C 8,9 C 91 % 1 lf 1015,1 hPa 0,0 l/m 0 min 0 min 0 W/m 0,0 km/h (0 Bft) 97,87 %
26.05.2016 02:08 11,3 C 9,4 C 8,9 C 91 % 2 lf 1015,1 hPa 0,0 l/m 0 min 0 min 0 W/m 0,0 km/h (0 Bft) 95,74 %
26.05.2016 02:10 11,3 C 9,4 C 8,3 C 91 % 2 lf 1015,1 hPa 0,0 l/m 0 min 0 min 0 W/m 0,0 km/h (0 Bft) 100,00 %
26.05.2016 02:12 11,3 C 9,4 C 8,3 C 91 % 2 lf 1015,1 hPa 0,0 l/m 0 min 0 min 0 W/m 0,0 km/h (0 Bft) 96,36 %
26.05.2016 02:14 11,2 C 9,4 C 8,3 C 91 % 2 lf 1015,1 hPa 0,0 l/m 0 min 0 min 0 W/m 0,0 km/h (0 Bft) 95,74 %
26.05.2016 02:16 11,2 C 9,4 C 8,3 C 91 % 2 lf 1015,0 hPa 0,0 l/m 0 min 0 min 0 W/m 0,0 km/h (0 Bft) 95,74 %
26.05.2016 02:18 11,2 C 9,4 C 8,3 C 91 % 2 lf 1015,0 hPa 0,0 l/m 0 min 0 min 0 W/m 0,0 km/h (0 Bft) 97,37 %
26.05.2016 02:20 11,1 C 9,4 C 8,3 C 91 % 3 lf 1015,1 hPa 0,0 l/m 0 min 0 min 0 W/m 0,0 km/h (0 Bft) 93,62 %
26.05.2016 02:22 11,1 C 9,4 C 8,3 C 91 % 3 lf 1015,0 hPa 0,0 l/m 0 min 0 min 0 W/m 0,0 km/h (0 Bft) 97,87 %
26.05.2016 02:24 11,1 C 9,4 C 8,3 C 91 % 3 lf 1015,0 hPa 0,0 l/m 0 min 0 min 0 W/m 0,0 km/h (0 Bft) 96,36 %
26.05.2016 02:26 11,1 C 9,4 C 8,3 C 91 % 3 lf 1015,0 hPa 0,0 l/m 0 min 0 min 0 W/m 0,0 km/h (0 Bft) 92,11 %
26.05.2016 02:28 11,0 C 8,9 C 8,3 C 91 % 3 lf 1015,0 hPa 0,0 l/m 0 min 0 min 0 W/m 0,0 km/h (0 Bft) 93,62 %
26.05.2016 02:30 11,0 C 8,9 C 8,3 C 91 % 3 lf 1015,0 hPa 0,0 l/m 0 min 0 min 0 W/m 0,0 km/h (0 Bft) 95,74 %
26.05.2016 02:32 10,9 C 8,9 C 7,8 C 91 % 3 lf 1015,0 hPa 0,0 l/m 0 min 0 min 0 W/m 0,0 km/h (0 Bft) 90,91 %
26.05.2016 02:34 10,9 C 8,9 C 7,8 C 91 % 3 lf 1015,0 hPa 0,0 l/m 0 min 0 min 0 W/m 0,0 km/h (0 Bft) 97,37 %
26.05.2016 02:36 10,9 C 8,9 C 7,8 C 91 % 4 lf 1015,1 hPa 0,0 l/m 0 min 0 min 0 W/m 0,0 km/h (0 Bft) 93,75 %
26.05.2016 02:38 10,8 C 8,9 C 7,8 C 91 % 4 lf 1015,1 hPa 0,0 l/m 0 min 0 min 0 W/m 0,0 km/h (0 Bft) 93,48 %
26.05.2016 02:40 10,8 C 8,9 C 7,8 C 91 % 4 lf 1015,1 hPa 0,0 l/m 0 min 0 min 0 W/m 0,0 km/h (0 Bft) 93,62 %
26.05.2016 02:42 10,8 C 8,9 C 8,3 C 91 % 4 lf 1015,1 hPa 0,0 l/m 0 min 0 min 0 W/m 0,0 km/h (0 Bft) 93,62 %
26.05.2016 02:44 10,8 C 8,9 C 8,3 C 91 % 4 lf 1015,1 hPa 0,0 l/m 0 min 0 min 0 W/m 2,1 km/h (1 Bft) 89,36 %
26.05.2016 02:46 10,7 C 8,9 C 8,3 C 91 % 4 lf 1015,1 hPa 0,0 l/m 0 min 0 min 0 W/m 4,2 km/h (1 Bft) 87,23 %
26.05.2016 02:48 10,7 C 8,9 C 8,3 C 91 % 5 lf 1015,1 hPa 0,0 l/m 0 min 0 min 0 W/m 4,2 km/h (1 Bft) 89,09 %
26.05.2016 02:50 10,7 C 8,9 C 8,3 C 91 % 5 lf 1015,1 hPa 0,0 l/m 0 min 0 min 0 W/m 0,0 km/h (0 Bft) 92,11 %
26.05.2016 02:52 10,7 C 8,9 C 7,8 C 91 % 6 lf 1015,1 hPa 0,0 l/m 0 min 0 min 0 W/m 0,0 km/h (0 Bft) 89,36 %
26.05.2016 02:54 10,6 C 8,9 C 7,8 C 91 % 7 lf 1015,1 hPa 0,0 l/m 0 min 0 min 0 W/m 0,0 km/h (0 Bft) 89,36 %
26.05.2016 02:56 10,6 C 8,9 C 8,3 C 91 % 7 lf 1015,1 hPa 0,0 l/m 0 min 0 min 0 W/m 0,0 km/h (0 Bft) 91,49 %
26.05.2016 02:58 10,6 C 8,9 C 8,3 C 91 % 8 lf 1015,1 hPa 0,0 l/m 0 min 0 min 0 W/m 0,0 km/h (0 Bft) 90,91 %
26.05.2016 03:00 10,5 C 8,9 C 7,8 C 91 % 9 lf 1015,1 hPa 0,0 l/m 0 min 0 min 0 W/m 0,0 km/h (0 Bft) 97,37 %
26.05.2016 03:02 10,5 C 8,9 C 7,8 C 91 % 9 lf 1015,1 hPa 0,0 l/m 0 min 0 min 0 W/m 0,0 km/h (0 Bft) 89,36 %
26.05.2016 03:04 10,5 C 8,3 C 7,8 C 91 % 10 lf 1015,1 hPa 0,0 l/m 0 min 0 min 0 W/m 2,1 km/h (1 Bft) 91,49 %
26.05.2016 03:06 10,4 C 8,3 C 7,8 C 91 % 11 lf 1015,1 hPa 0,0 l/m 0 min 0 min 0 W/m 0,0 km/h (0 Bft) 93,62 %
26.05.2016 03:08 10,4 C 8,3 C 7,8 C 91 % 11 lf 1015,1 hPa 0,0 l/m 0 min 0 min 0 W/m 0,0 km/h (0 Bft) 94,55 %
26.05.2016 03:10 10,4 C 8,3 C 7,8 C 91 % 12 lf 1015,0 hPa 0,0 l/m 0 min 0 min 0 W/m 0,0 km/h (0 Bft) 92,11 %
26.05.2016 03:12 10,3 C 8,3 C 7,8 C 91 % 12 lf 1015,0 hPa 0,0 l/m 0 min 0 min 0 W/m 0,0 km/h (0 Bft) 95,74 %
26.05.2016 03:14 10,3 C 8,3 C 7,8 C 91 % 13 lf 1015,1 hPa 0,0 l/m 0 min 0 min 0 W/m 4,2 km/h (1 Bft) 89,36 %
26.05.2016 03:16 10,3 C 8,3 C 7,8 C 92 % 13 lf 1015,1 hPa 0,0 l/m 0 min 0 min 0 W/m 2,1 km/h (1 Bft) 93,62 %
26.05.2016 03:18 10,3 C 8,3 C 7,8 C 92 % 13 lf 1015,1 hPa 0,0 l/m 0 min 0 min 0 W/m 0,0 km/h (0 Bft) 87,23 %
26.05.2016 03:20 10,2 C 8,3 C 7,8 C 92 % 13 lf 1015,1 hPa 0,0 l/m 0 min 0 min 0 W/m 0,0 km/h (0 Bft) 91,49 %
26.05.2016 03:22 10,2 C 8,3 C 7,8 C 92 % 14 lf 1015,1 hPa 0,0 l/m 0 min 0 min 0 W/m 0,0 km/h (0 Bft) 93,62 %
26.05.2016 03:24 10,2 C 8,3 C 7,8 C 92 % 14 lf 1015,1 hPa 0,0 l/m 0 min 0 min 0 W/m 0,0 km/h (0 Bft) 94,55 %
26.05.2016 03:26 10,1 C 8,3 C 7,8 C 92 % 14 lf 1015,0 hPa 0,0 l/m 0 min 0 min 0 W/m 0,0 km/h (0 Bft) 95,74 %
26.05.2016 03:28 10,1 C 8,3 C 7,8 C 92 % 15 lf 1015,0 hPa 0,0 l/m 0 min 0 min 0 W/m 0,0 km/h (0 Bft) 94,74 %
26.05.2016 03:30 10,1 C 8,3 C 7,8 C 92 % 15 lf 1015,1 hPa 0,0 l/m 0 min 0 min 0 W/m 0,0 km/h (0 Bft) 93,62 %
26.05.2016 03:32 10,1 C 8,3 C 7,8 C 92 % 15 lf 1015,0 hPa 0,0 l/m 0 min 0 min 0 W/m 0,0 km/h (0 Bft) 97,87 %
26.05.2016 03:34 10,0 C 8,3 C 7,8 C 92 % 15 lf 1015,0 hPa 0,0 l/m 0 min 0 min 0 W/m 0,0 km/h (0 Bft) 95,74 %
26.05.2016 03:36 10,0 C 8,3 C 7,8 C 92 % 15 lf 1015,1 hPa 0,0 l/m 0 min 0 min 0 W/m 0,0 km/h (0 Bft) 94,55 %
26.05.2016 03:38 10,0 C 8,3 C 7,8 C 92 % 15 lf 1015,1 hPa 0,0 l/m 0 min 0 min 0 W/m 0,0 km/h (0 Bft) 97,87 %
26.05.2016 03:40 9,9 C 8,3 C 7,8 C 92 % 15 lf 1015,0 hPa 0,0 l/m 0 min 0 min 0 W/m 0,0 km/h (0 Bft) 100,00 %
26.05.2016 03:42 9,9 C 8,3 C 7,8 C 92 % 15 lf 1015,1 hPa 0,0 l/m 0 min 0 min 0 W/m 0,0 km/h (0 Bft) 97,87 %
26.05.2016 03:44 9,9 C 8,3 C 7,8 C 92 % 15 lf 1015,0 hPa 0,0 l/m 0 min 0 min 0 W/m 0,0 km/h (0 Bft) 97,87 %
26.05.2016 03:46 9,9 C 8,3 C 7,8 C 92 % 15 lf 1015,1 hPa 0,0 l/m 0 min 0 min 0 W/m 0,0 km/h (0 Bft) 95,74 %
26.05.2016 03:48 9,9 C 8,3 C 7,8 C 92 % 15 lf 1015,1 hPa 0,0 l/m 0 min 0 min 0 W/m 0,0 km/h (0 Bft) 98,18 %
26.05.2016 03:50 9,8 C 8,3 C 7,8 C 92 % 15 lf 1015,1 hPa 0,0 l/m 0 min 0 min 0 W/m 0,0 km/h (0 Bft) 97,37 %
26.05.2016 03:52 9,8 C 8,3 C 7,8 C 92 % 15 lf 1015,1 hPa 0,0 l/m 0 min 0 min 0 W/m 0,0 km/h (0 Bft) 100,00 %
26.05.2016 03:54 9,8 C 8,3 C 7,8 C 92 % 15 lf 1015,1 hPa 0,0 l/m 0 min 0 min 0 W/m 2,1 km/h (1 Bft) 100,00 %
26.05.2016 03:56 9,8 C 8,9 C 7,8 C 92 % 15 lf 1015,1 hPa 0,0 l/m 0 min 0 min 0 W/m 2,1 km/h (1 Bft) 100,00 %
26.05.2016 03:58 9,8 C 8,9 C 8,3 C 92 % 15 lf 1015,1 hPa 0,0 l/m 0 min 0 min 0 W/m 2,1 km/h (1 Bft) 97,87 %
26.05.2016 04:00 9,8 C 8,9 C 8,3 C 92 % 15 lf 1015,1 hPa 0,0 l/m 0 min 0 min 0 W/m 0,0 km/h (0 Bft) 97,37 %
26.05.2016 04:05 9,7 C 8,9 C 8,3 C 92 % 15 lf 1015,1 hPa 0,0 l/m 0 min 0 min 0 W/m 0,0 km/h (0 Bft) 100,00 %
26.05.2016 04:06 9,7 C 8,9 C 8,3 C 93 % 15 lf 1015,1 hPa 0,0 l/m 0 min 0 min 0 W/m 0,0 km/h (0 Bft) 100,00 %
26.05.2016 04:08 9,7 C 8,9 C 8,3 C 93 % 15 lf 1015,1 hPa 0,0 l/m 0 min 0 min 0 W/m 0,0 km/h (0 Bft) 95,74 %
26.05.2016 04:10 9,7 C 8,9 C 8,3 C 93 % 15 lf 1015,0 hPa 0,0 l/m 0 min 0 min 0 W/m 0,0 km/h (0 Bft) 100,00 %
26.05.2016 04:12 9,7 C 8,9 C 8,3 C 93 % 15 lf 1015,0 hPa 0,0 l/m 0 min 0 min 0 W/m 0,0 km/h (0 Bft) 95,74 %
26.05.2016 04:14 9,6 C 8,9 C 8,3 C 93 % 15 lf 1015,0 hPa 0,0 l/m 0 min 0 min 0 W/m 0,0 km/h (0 Bft) 100,00 %
26.05.2016 04:16 9,6 C 8,9 C 8,3 C 93 % 15 lf 1015,0 hPa 0,0 l/m 0 min 0 min 0 W/m 0,0 km/h (0 Bft) 97,87 %
26.05.2016 04:18 9,6 C 8,9 C 8,3 C 93 % 15 lf 1015,0 hPa 0,0 l/m 0 min 0 min 0 W/m 0,0 km/h (0 Bft) 97,83 %
26.05.2016 04:20 9,6 C 8,9 C 8,3 C 93 % 15 lf 1015,0 hPa 0,0 l/m 0 min 0 min 0 W/m 0,0 km/h (0 Bft) 97,87 %
26.05.2016 04:22 9,6 C 8,9 C 8,3 C 93 % 15 lf 1015,0 hPa 0,0 l/m 0 min 0 min 0 W/m 0,0 km/h (0 Bft) 93,62 %
26.05.2016 04:24 9,6 C 8,9 C 8,3 C 93 % 15 lf 1015,0 hPa 0,0 l/m 0 min 0 min 0 W/m 0,0 km/h (0 Bft) 97,87 %
26.05.2016 04:26 9,6 C 8,9 C 8,3 C 93 % 15 lf 1015,0 hPa 0,0 l/m 0 min 0 min 0 W/m 0,0 km/h (0 Bft) 97,87 %
26.05.2016 04:28 9,6 C 8,9 C 8,3 C 93 % 15 lf 1015,0 hPa 0,0 l/m 0 min 0 min 0 W/m 0,0 km/h (0 Bft) 97,83 %
26.05.2016 04:30 9,6 C 9,4 C 8,3 C 93 % 15 lf 1015,1 hPa 0,0 l/m 0 min 0 min 0 W/m 0,0 km/h (0 Bft) 95,74 %
26.05.2016 04:32 9,6 C 9,4 C 8,3 C 93 % 15 lf 1015,1 hPa 0,0 l/m 0 min 0 min 0 W/m 0,0 km/h (0 Bft) 95,74 %
26.05.2016 04:34 9,6 C 9,4 C 8,3 C 93 % 15 lf 1015,1 hPa 0,0 l/m 0 min 0 min 0 W/m 0,0 km/h (0 Bft) 95,74 %
26.05.2016 04:36 9,6 C 9,4 C 8,3 C 93 % 15 lf 1015,0 hPa 0,0 l/m 0 min 0 min 0 W/m 0,0 km/h (0 Bft) 97,87 %
26.05.2016 04:38 9,6 C 9,4 C 8,3 C 93 % 15 lf 1015,0 hPa 0,0 l/m 0 min 0 min 0 W/m 2,1 km/h (1 Bft) 97,87 %
26.05.2016 04:40 9,6 C 9,4 C 8,3 C 93 % 15 lf 1015,0 hPa 0,0 l/m 0 min 0 min 0 W/m 4,2 km/h (1 Bft) 97,83 %
26.05.2016 04:42 9,6 C 9,4 C 8,3 C 93 % 15 lf 1015,0 hPa 0,0 l/m 0 min 0 min 0 W/m 2,1 km/h (1 Bft) 97,87 %
26.05.2016 04:44 9,6 C 9,4 C 8,9 C 93 % 15 lf 1015,0 hPa 0,0 l/m 0 min 0 min 0 W/m 4,2 km/h (1 Bft) 97,87 %
26.05.2016 04:46 9,7 C 9,4 C 8,9 C 93 % 15 lf 1015,0 hPa 0,0 l/m 0 min 0 min 0 W/m 0,0 km/h (0 Bft) 98,00 %
26.05.2016 04:48 9,7 C 9,4 C 8,9 C 93 % 15 lf 1015,0 hPa 0,0 l/m 0 min 0 min 0 W/m 2,1 km/h (1 Bft) 97,87 %
26.05.2016 04:50 9,7 C 9,4 C 8,9 C 94 % 15 lf 1015,1 hPa 0,0 l/m 0 min 0 min 0 W/m 0,0 km/h (0 Bft) 97,87 %
26.05.2016 04:52 9,7 C 9,4 C 8,9 C 94 % 15 lf 1015,1 hPa 0,0 l/m 0 min 0 min 0 W/m 0,0 km/h (0 Bft) 97,83 %
26.05.2016 04:54 9,7 C 9,4 C 8,9 C 94 % 15 lf 1015,1 hPa 0,0 l/m 0 min 0 min 0 W/m 0,0 km/h (0 Bft) 100,00 %
26.05.2016 04:56 9,7 C 9,4 C 8,9 C 94 % 15 lf 1015,1 hPa 0,0 l/m 0 min 0 min 0 W/m 0,0 km/h (0 Bft) 93,62 %
26.05.2016 04:58 9,7 C 9,4 C 8,9 C 94 % 15 lf 1015,1 hPa 0,0 l/m 0 min 0 min 0 W/m 0,0 km/h (0 Bft) 100,00 %
26.05.2016 05:00 9,7 C 9,4 C 8,9 C 94 % 15 lf 1015,1 hPa 0,0 l/m 0 min 0 min 0 W/m 0,0 km/h (0 Bft) 97,87 %
26.05.2016 05:02 9,7 C 9,4 C 8,9 C 94 % 15 lf 1015,1 hPa 0,0 l/m 0 min 0 min 0 W/m 2,1 km/h (1 Bft) 95,65 %
26.05.2016 05:04 9,7 C 9,4 C 8,9 C 94 % 15 lf 1015,1 hPa 0,0 l/m 0 min 0 min 0 W/m 2,1 km/h (1 Bft) 97,87 %
26.05.2016 05:06 9,7 C 9,4 C 8,9 C 94 % 15 lf 1015,2 hPa 0,0 l/m 0 min 0 min 0 W/m 4,2 km/h (1 Bft) 97,87 %
26.05.2016 05:08 9,7 C 9,4 C 8,9 C 94 % 15 lf 1015,2 hPa 0,0 l/m 0 min 0 min 0 W/m 4,2 km/h (1 Bft) 97,87 %
26.05.2016 05:10 9,8 C 9,4 C 8,9 C 94 % 15 lf 1015,2 hPa 0,0 l/m 0 min 0 min 0 W/m 4,2 km/h (1 Bft) 100,00 %
26.05.2016 05:12 9,8 C 9,4 C 8,9 C 94 % 15 lf 1015,2 hPa 0,0 l/m 0 min 0 min 0 W/m 2,1 km/h (1 Bft) 95,74 %
26.05.2016 05:14 9,8 C 9,4 C 8,9 C 94 % 15 lf 1015,2 hPa 0,0 l/m 0 min 0 min 0 W/m 2,1 km/h (1 Bft) 97,83 %
26.05.2016 05:16 9,8 C 9,4 C 9,4 C 94 % 15 lf 1015,2 hPa 0,0 l/m 0 min 0 min 0 W/m 0,0 km/h (0 Bft) 100,00 %
26.05.2016 05:18 9,9 C 9,4 C 8,9 C 94 % 15 lf 1015,2 hPa 0,0 l/m 0 min 0 min 0 W/m 0,0 km/h (0 Bft) 97,87 %
26.05.2016 05:20 9,8 C 9,4 C 8,9 C 94 % 15 lf 1015,2 hPa 0,0 l/m 0 min 0 min 0 W/m 0,0 km/h (0 Bft) 97,87 %
26.05.2016 05:22 9,9 C 9,4 C 8,9 C 94 % 15 lf 1015,2 hPa 0,0 l/m 0 min 0 min 0 W/m 0,0 km/h (0 Bft) 97,87 %
26.05.2016 05:24 9,9 C 9,4 C 8,9 C 94 % 15 lf 1015,2 hPa 0,0 l/m 0 min 0 min 0 W/m 0,0 km/h (0 Bft) 97,87 %
26.05.2016 05:26 9,9 C 9,4 C 9,4 C 94 % 15 lf 1015,2 hPa 0,0 l/m 0 min 0 min 0 W/m 2,1 km/h (1 Bft) 97,83 %
26.05.2016 05:28 9,9 C 9,4 C 9,4 C 94 % 15 lf 1015,2 hPa 0,0 l/m 0 min 0 min 0 W/m 0,0 km/h (0 Bft) 95,74 %
26.05.2016 05:30 9,9 C 10,0 C 9,4 C 95 % 15 lf 1015,2 hPa 0,0 l/m 0 min 0 min 0 W/m 2,1 km/h (1 Bft) 97,87 %
26.05.2016 05:32 9,9 C 10,0 C 9,4 C 95 % 14 lf 1015,2 hPa 0,0 l/m 0 min 0 min 1 W/m 0,0 km/h (0 Bft) 93,62 %
26.05.2016 05:34 9,9 C 10,0 C 8,9 C 95 % 14 lf 1015,2 hPa 0,0 l/m 0 min 0 min 5 W/m 0,0 km/h (0 Bft) 95,74 %
26.05.2016 05:36 9,9 C 10,0 C 9,4 C 95 % 14 lf 1015,2 hPa 0,0 l/m 0 min 0 min 5 W/m 0,0 km/h (0 Bft) 97,87 %
26.05.2016 05:38 10,0 C 10,0 C 9,4 C 95 % 14 lf 1015,2 hPa 0,0 l/m 0 min 0 min 5 W/m 2,1 km/h (1 Bft) 91,30 %
26.05.2016 05:40 10,0 C 10,0 C 9,4 C 95 % 14 lf 1015,2 hPa 0,0 l/m 0 min 0 min 6 W/m 2,1 km/h (1 Bft) 95,74 %
26.05.2016 05:42 10,0 C 10,0 C 9,4 C 95 % 14 lf 1015,2 hPa 0,0 l/m 0 min 0 min 7 W/m 0,0 km/h (0 Bft) 95,74 %
26.05.2016 05:44 10,0 C 10,0 C 9,4 C 95 % 13 lf 1015,2 hPa 0,0 l/m 0 min 0 min 7 W/m 0,0 km/h (0 Bft) 97,87 %
26.05.2016 05:46 10,0 C 10,0 C 9,4 C 95 % 13 lf 1015,1 hPa 0,0 l/m 0 min 0 min 9 W/m 0,0 km/h (0 Bft) 97,87 %
26.05.2016 05:48 10,1 C 10,0 C 9,4 C 95 % 13 lf 1015,2 hPa 0,0 l/m 0 min 0 min 9 W/m 0,0 km/h (0 Bft) 93,62 %
26.05.2016 05:50 10,1 C 10,0 C 9,4 C 95 % 12 lf 1015,1 hPa 0,0 l/m 0 min 0 min 10 W/m 0,0 km/h (0 Bft) 95,65 %
26.05.2016 05:52 10,1 C 10,0 C 9,4 C 95 % 12 lf 1015,2 hPa 0,0 l/m 0 min 0 min 11 W/m 0,0 km/h (0 Bft) 95,74 %
26.05.2016 05:54 10,1 C 10,0 C 9,4 C 95 % 12 lf 1015,2 hPa 0,0 l/m 0 min 0 min 11 W/m 0,0 km/h (0 Bft) 93,62 %
26.05.2016 05:56 10,1 C 10,0 C 9,4 C 95 % 11 lf 1015,2 hPa 0,0 l/m 0 min 0 min 12 W/m 0,0 km/h (0 Bft) 95,74 %
26.05.2016 05:58 10,1 C 10,0 C 9,4 C 95 % 11 lf 1015,2 hPa 0,0 l/m 0 min 0 min 13 W/m 0,0 km/h (0 Bft) 91,49 %
26.05.2016 06:00 10,1 C 10,0 C 9,4 C 95 % 10 lf 1015,2 hPa 0,0 l/m 0 min 0 min 14 W/m 2,1 km/h (1 Bft) 95,74 %
26.05.2016 06:02 10,1 C 10,0 C 9,4 C 95 % 9 lf 1015,2 hPa 0,0 l/m 0 min 0 min 16 W/m 4,2 km/h (1 Bft) 93,48 %
26.05.2016 06:04 10,1 C 10,0 C 9,4 C 95 % 9 lf 1015,3 hPa 0,0 l/m 0 min 0 min 17 W/m 2,1 km/h (1 Bft) 91,67 %
26.05.2016 06:06 10,1 C 10,0 C 9,4 C 95 % 8 lf 1015,3 hPa 0,0 l/m 0 min 0 min 18 W/m 2,1 km/h (1 Bft) 93,62 %
26.05.2016 06:08 10,2 C 10,0 C 9,4 C 95 % 6 lf 1015,3 hPa 0,0 l/m 0 min 0 min 19 W/m 2,1 km/h (1 Bft) 93,48 %
26.05.2016 06:10 10,2 C 10,0 C 9,4 C 95 % 4 lf 1015,3 hPa 0,0 l/m 0 min 0 min 20 W/m 4,2 km/h (1 Bft) 87,23 %
26.05.2016 06:12 10,2 C 10,0 C 9,4 C 95 % 4 lf 1015,3 hPa 0,0 l/m 0 min 0 min 22 W/m 4,2 km/h (1 Bft) 91,49 %
26.05.2016 06:14 10,2 C 10,0 C 9,4 C 95 % 3 lf 1015,3 hPa 0,0 l/m 0 min 0 min 25 W/m 4,2 km/h (1 Bft) 91,49 %
26.05.2016 06:16 10,2 C 10,0 C 9,4 C 95 % 3 lf 1015,3 hPa 0,0 l/m 0 min 0 min 26 W/m 0,0 km/h (0 Bft) 93,62 %
26.05.2016 06:18 10,2 C 10,0 C 9,4 C 95 % 3 lf 1015,3 hPa 0,0 l/m 0 min 0 min 27 W/m 0,0 km/h (0 Bft) 95,65 %
26.05.2016 06:20 10,2 C 10,0 C 9,4 C 95 % 2 lf 1015,3 hPa 0,0 l/m 0 min 0 min 30 W/m 0,0 km/h (0 Bft) 95,74 %
26.05.2016 06:22 10,2 C 10,0 C 9,4 C 95 % 2 lf 1015,3 hPa 0,0 l/m 0 min 0 min 33 W/m 0,0 km/h (0 Bft) 91,49 %
26.05.2016 06:24 10,2 C 10,0 C 9,4 C 95 % 2 lf 1015,3 hPa 0,0 l/m 0 min 0 min 36 W/m 0,0 km/h (0 Bft) 93,62 %
26.05.2016 06:26 10,2 C 10,6 C 10,0 C 95 % 1 lf 1015,4 hPa 0,0 l/m 0 min 0 min 37 W/m 0,0 km/h (0 Bft) 95,74 %
26.05.2016 06:28 10,3 C 10,6 C 10,0 C 95 % 1 lf 1015,4 hPa 0,0 l/m 0 min 0 min 37 W/m 0,0 km/h (0 Bft) 89,36 %
26.05.2016 06:30 10,3 C 10,6 C 10,0 C 95 % 1 lf 1015,3 hPa 0,0 l/m 0 min 0 min 37 W/m 0,0 km/h (0 Bft) 93,48 %
26.05.2016 06:32 10,3 C 10,6 C 10,0 C 95 % 0 lf 1015,4 hPa 0,0 l/m 0 min 0 min 37 W/m 0,0 km/h (0 Bft) 93,62 %
26.05.2016 06:34 10,3 C 10,6 C 10,0 C 95 % 0 lf 1015,4 hPa 0,0 l/m 0 min 0 min 39 W/m 0,0 km/h (0 Bft) 93,62 %
26.05.2016 06:36 10,3 C 10,6 C 10,0 C 95 % 0 lf 1015,4 hPa 0,0 l/m 0 min 0 min 41 W/m 0,0 km/h (0 Bft) 95,74 %
26.05.2016 06:38 10,3 C 10,6 C 10,6 C 95 % 0 lf 1015,4 hPa 0,0 l/m 0 min 0 min 42 W/m 0,0 km/h (0 Bft) 93,62 %
26.05.2016 06:40 10,4 C 11,1 C 10,6 C 95 % 0 lf 1015,4 hPa 0,0 l/m 0 min 0 min 42 W/m 0,0 km/h (0 Bft) 93,62 %
26.05.2016 06:42 10,4 C 11,1 C 10,6 C 95 % 0 lf 1015,4 hPa 0,0 l/m 0 min 0 min 43 W/m 0,0 km/h (0 Bft) 97,87 %
26.05.2016 06:44 10,4 C 11,1 C 10,6 C 95 % 0 lf 1015,4 hPa 0,0 l/m 0 min 0 min 45 W/m 0,0 km/h (0 Bft) 95,65 %
26.05.2016 06:46 10,4 C 11,1 C 10,6 C 96 % 0 lf 1015,4 hPa 0,0 l/m 0 min 0 min 48 W/m 0,0 km/h (0 Bft) 91,49 %
26.05.2016 06:48 10,5 C 11,1 C 10,6 C 96 % 0 lf 1015,4 hPa 0,0 l/m 0 min 0 min 50 W/m 0,0 km/h (0 Bft) 95,74 %
26.05.2016 06:50 10,5 C 11,1 C 10,6 C 96 % 0 lf 1015,4 hPa 0,0 l/m 0 min 0 min 53 W/m 0,0 km/h (0 Bft) 97,87 %
26.05.2016 06:52 10,6 C 11,1 C 10,6 C 96 % 0 lf 1015,5 hPa 0,0 l/m 0 min 0 min 53 W/m 0,0 km/h (0 Bft) 97,87 %
26.05.2016 06:54 10,6 C 11,1 C 10,6 C 96 % 0 lf 1015,4 hPa 0,0 l/m 0 min 0 min 61 W/m 0,0 km/h (0 Bft) 95,65 %
26.05.2016 06:56 10,6 C 11,1 C 10,6 C 96 % 0 lf 1015,4 hPa 0,0 l/m 0 min 0 min 57 W/m 0,0 km/h (0 Bft) 95,74 %
26.05.2016 06:58 10,6 C 11,7 C 10,6 C 96 % 0 lf 1015,4 hPa 0,0 l/m 0 min 0 min 60 W/m 0,0 km/h (0 Bft) 97,87 %
26.05.2016 07:00 10,6 C 11,7 C 10,6 C 96 % 0 lf 1015,4 hPa 0,0 l/m 0 min 0 min 65 W/m 0,0 km/h (0 Bft) 97,87 %
26.05.2016 07:02 10,7 C 11,7 C 10,6 C 96 % 0 lf 1015,5 hPa 0,0 l/m 0 min 0 min 72 W/m 0,0 km/h (0 Bft) 93,62 %
26.05.2016 07:04 10,7 C 11,7 C 10,6 C 96 % 0 lf 1015,5 hPa 0,0 l/m 0 min 0 min 77 W/m 0,0 km/h (0 Bft) 97,87 %
26.05.2016 07:06 10,7 C 12,2 C 11,1 C 96 % 0 lf 1015,5 hPa 0,0 l/m 0 min 0 min 81 W/m 0,0 km/h (0 Bft) 97,83 %
26.05.2016 07:08 10,7 C 12,2 C 11,1 C 96 % 0 lf 1015,4 hPa 0,0 l/m 0 min 0 min 83 W/m 0,0 km/h (0 Bft) 97,87 %
26.05.2016 07:10 10,7 C 12,2 C 11,1 C 96 % 0 lf 1015,4 hPa 0,0 l/m 0 min 0 min 85 W/m 0,0 km/h (0 Bft) 95,74 %
26.05.2016 07:12 10,7 C 12,2 C 11,1 C 96 % 0 lf 1015,4 hPa 0,0 l/m 0 min 0 min 88 W/m 0,0 km/h (0 Bft) 95,74 %
26.05.2016 07:14 10,8 C 12,8 C 11,7 C 96 % 0 lf 1015,4 hPa 0,0 l/m 0 min 0 min 90 W/m 0,0 km/h (0 Bft) 97,87 %
26.05.2016 07:16 10,8 C 12,8 C 11,7 C 96 % 0 lf 1015,4 hPa 0,0 l/m 0 min 0 min 93 W/m 0,0 km/h (0 Bft) 95,74 %
26.05.2016 07:18 10,8 C 12,8 C 11,7 C 96 % 0 lf 1015,4 hPa 0,0 l/m 0 min 0 min 102 W/m 0,0 km/h (0 Bft) 95,65 %
26.05.2016 07:20 10,8 C 13,3 C 11,7 C 96 % 0 lf 1015,5 hPa 0,0 l/m 0 min 0 min 114 W/m 0,0 km/h (0 Bft) 95,74 %
26.05.2016 07:22 10,9 C 12,8 C 11,7 C 96 % 0 lf 1015,5 hPa 0,0 l/m 0 min 0 min 119 W/m 0,0 km/h (0 Bft) 93,62 %
26.05.2016 07:24 10,9 C 12,8 C 11,7 C 96 % 0 lf 1015,5 hPa 0,0 l/m 0 min 0 min 123 W/m 0,0 km/h (0 Bft) 95,74 %
26.05.2016 07:26 11,0 C 13,3 C 11,7 C 96 % 0 lf 1015,5 hPa 0,0 l/m 0 min 0 min 126 W/m 2,1 km/h (1 Bft) 97,87 %
26.05.2016 07:28 11,1 C 13,3 C 12,2 C 96 % 0 lf 1015,6 hPa 0,0 l/m 0 min 0 min 120 W/m 4,2 km/h (1 Bft) 95,74 %
26.05.2016 07:30 11,2 C 13,3 C 12,2 C 96 % 0 lf 1015,6 hPa 0,0 l/m 0 min 0 min 116 W/m 4,2 km/h (1 Bft) 95,65 %
26.05.2016 07:32 11,2 C 13,3 C 12,2 C 96 % 0 lf 1015,6 hPa 0,0 l/m 0 min 0 min 116 W/m 4,2 km/h (1 Bft) 95,74 %
26.05.2016 07:34 11,3 C 13,3 C 12,2 C 96 % 0 lf 1015,6 hPa 0,0 l/m 0 min 0 min 116 W/m 6,3 km/h (2 Bft) 95,74 %
26.05.2016 07:36 11,3 C 13,9 C 12,2 C 96 % 0 lf 1015,6 hPa 0,0 l/m 0 min 0 min 118 W/m 8,4 km/h (2 Bft) 97,87 %
26.05.2016 07:38 11,4 C 13,3 C 12,2 C 96 % 0 lf 1015,6 hPa 0,0 l/m 0 min 0 min 120 W/m 8,4 km/h (2 Bft) 95,74 %
26.05.2016 07:40 11,5 C 13,9 C 12,2 C 97 % 0 lf 1015,6 hPa 0,0 l/m 0 min 0 min 123 W/m 4,2 km/h (1 Bft) 100,00 %
26.05.2016 07:42 11,5 C 13,9 C 12,2 C 97 % 0 lf 1015,6 hPa 0,0 l/m 0 min 0 min 126 W/m 4,2 km/h (1 Bft) 95,74 %
26.05.2016 07:44 11,6 C 13,9 C 12,2 C 97 % 0 lf 1015,6 hPa 0,0 l/m 0 min 0 min 133 W/m 4,2 km/h (1 Bft) 97,87 %
26.05.2016 07:46 11,6 C 13,9 C 12,2 C 97 % 0 lf 1015,7 hPa 0,0 l/m 0 min 0 min 137 W/m 2,1 km/h (1 Bft) 93,62 %
26.05.2016 07:48 11,7 C 13,9 C 12,8 C 97 % 0 lf 1015,7 hPa 0,0 l/m 0 min 0 min 130 W/m 0,0 km/h (0 Bft) 97,87 %
26.05.2016 07:50 11,7 C 13,9 C 12,8 C 97 % 0 lf 1015,7 hPa 0,0 l/m 0 min 0 min 151 W/m 2,1 km/h (1 Bft) 100,00 %
26.05.2016 07:52 11,8 C 13,9 C 12,8 C 97 % 0 lf 1015,7 hPa 0,0 l/m 0 min 0 min 151 W/m 4,2 km/h (1 Bft) 97,83 %
26.05.2016 07:54 11,8 C 14,4 C 12,8 C 97 % 0 lf 1015,7 hPa 0,0 l/m 0 min 0 min 152 W/m 8,4 km/h (2 Bft) 95,74 %
26.05.2016 07:56 11,9 C 13,9 C 12,8 C 97 % 0 lf 1015,8 hPa 0,0 l/m 0 min 0 min 152 W/m 6,3 km/h (2 Bft) 97,87 %
26.05.2016 07:58 11,9 C 13,9 C 12,8 C 97 % 0 lf 1015,8 hPa 0,0 l/m 0 min 0 min 165 W/m 8,4 km/h (2 Bft) 95,74 %
26.05.2016 08:00 12,0 C 14,4 C 12,8 C 97 % 0 lf 1015,7 hPa 0,0 l/m 2 min 0 min 194 W/m 8,4 km/h (2 Bft) 97,87 %
26.05.2016 08:02 12,0 C 14,4 C 12,8 C 97 % 0 lf 1015,8 hPa 0,0 l/m 0 min 0 min 170 W/m 8,4 km/h (2 Bft) 95,74 %
26.05.2016 08:04 12,1 C 14,4 C 12,8 C 97 % 0 lf 1015,8 hPa 0,0 l/m 2 min 0 min 221 W/m 8,4 km/h (2 Bft) 95,65 %
26.05.2016 08:06 12,1 C 15,0 C 12,8 C 97 % 0 lf 1015,7 hPa 0,0 l/m 0 min 0 min 159 W/m 6,3 km/h (2 Bft) 95,74 %
26.05.2016 08:08 12,1 C 14,4 C 12,8 C 97 % 0 lf 1015,8 hPa 0,0 l/m 0 min 0 min 176 W/m 6,3 km/h (2 Bft) 97,87 %
26.05.2016 08:10 12,2 C 14,4 C 12,8 C 97 % 0 lf 1015,8 hPa 0,0 l/m 2 min 0 min 221 W/m 8,4 km/h (2 Bft) 97,87 %
26.05.2016 08:12 12,2 C 13,9 C 12,8 C 97 % 0 lf 1015,9 hPa 0,0 l/m 2 min 0 min 251 W/m 8,4 km/h (2 Bft) 93,62 %
26.05.2016 08:14 12,2 C 14,4 C 12,8 C 97 % 0 lf 1015,9 hPa 0,0 l/m 2 min 0 min 228 W/m 14,6 km/h (3 Bft) 93,62 %
26.05.2016 08:16 12,3 C 14,4 C 12,8 C 97 % 0 lf 1015,9 hPa 0,0 l/m 0 min 0 min 168 W/m 8,4 km/h (2 Bft) 93,48 %
26.05.2016 08:18 12,3 C 15,0 C 12,8 C 97 % 0 lf 1015,9 hPa 0,0 l/m 0 min 0 min 172 W/m 10,5 km/h (2 Bft) 95,74 %
26.05.2016 08:20 12,3 C 15,0 C 12,8 C 97 % 0 lf 1015,9 hPa 0,0 l/m 0 min 0 min 181 W/m 8,4 km/h (2 Bft) 95,74 %
26.05.2016 08:22 12,4 C 15,0 C 12,8 C 97 % 0 lf 1015,8 hPa 0,0 l/m 2 min 0 min 214 W/m 8,4 km/h (2 Bft) 97,87 %
26.05.2016 08:24 12,4 C 14,4 C 12,8 C 97 % 0 lf 1015,9 hPa 0,0 l/m 2 min 0 min 216 W/m 8,4 km/h (2 Bft) 95,74 %
26.05.2016 08:26 12,4 C 15,0 C 12,8 C 97 % 0 lf 1016,0 hPa 0,0 l/m 2 min 0 min 273 W/m 8,4 km/h (2 Bft) 95,74 %
26.05.2016 08:28 12,5 C 15,6 C 13,3 C 97 % 0 lf 1016,0 hPa 0,0 l/m 2 min 0 min 274 W/m 8,4 km/h (2 Bft) 95,65 %
26.05.2016 08:30 12,6 C 16,1 C 13,3 C 97 % 0 lf 1016,1 hPa 0,0 l/m 2 min 0 min 272 W/m 10,5 km/h (2 Bft) 91,49 %
26.05.2016 08:32 12,6 C 16,7 C 13,3 C 97 % 0 lf 1016,1 hPa 0,0 l/m 2 min 0 min 329 W/m 8,4 km/h (2 Bft) 93,62 %
26.05.2016 08:34 12,6 C 16,7 C 13,3 C 97 % 0 lf 1016,1 hPa 0,0 l/m 2 min 0 min 379 W/m 8,4 km/h (2 Bft) 95,74 %
26.05.2016 08:36 12,7 C 17,2 C 13,3 C 96 % 0 lf 1016,1 hPa 0,0 l/m 2 min 0 min 377 W/m 10,5 km/h (2 Bft) 97,87 %
26.05.2016 08:38 12,7 C 18,9 C 13,3 C 96 % 0 lf 1016,1 hPa 0,0 l/m 2 min 0 min 393 W/m 10,5 km/h (2 Bft) 93,62 %
26.05.2016 08:40 12,8 C 18,9 C 13,3 C 96 % 0 lf 1016,1 hPa 0,0 l/m 2 min 0 min 389 W/m 8,4 km/h (2 Bft) 95,65 %
26.05.2016 08:42 12,9 C 19,4 C 13,3 C 96 % 0 lf 1016,1 hPa 0,0 l/m 2 min 0 min 397 W/m 10,5 km/h (2 Bft) 95,74 %
26.05.2016 08:44 12,9 C 18,3 C 13,3 C 96 % 0 lf 1016,1 hPa 0,0 l/m 2 min 0 min 409 W/m 10,5 km/h (2 Bft) 95,74 %
26.05.2016 08:46 13,1 C 18,9 C 13,9 C 96 % 0 lf 1016,1 hPa 0,0 l/m 2 min 0 min 417 W/m 10,5 km/h (2 Bft) 89,36 %
26.05.2016 08:48 13,2 C 18,3 C 13,9 C 96 % 0 lf 1016,1 hPa 0,0 l/m 2 min 0 min 428 W/m 8,4 km/h (2 Bft) 95,74 %
26.05.2016 08:50 13,2 C 20,0 C 13,9 C 96 % 0 lf 1016,1 hPa 0,0 l/m 2 min 0 min 426 W/m 6,3 km/h (2 Bft) 95,65 %
26.05.2016 08:52 13,3 C 20,6 C 13,9 C 96 % 0 lf 1016,1 hPa 0,0 l/m 2 min 0 min 430 W/m 8,4 km/h (2 Bft) 93,62 %
26.05.2016 08:54 13,4 C 21,1 C 13,9 C 96 % 0 lf 1016,1 hPa 0,0 l/m 2 min 0 min 433 W/m 8,4 km/h (2 Bft) 95,74 %
26.05.2016 08:56 13,6 C 20,0 C 13,9 C 96 % 0 lf 1016,2 hPa 0,0 l/m 2 min 0 min 438 W/m 8,4 km/h (2 Bft) 93,62 %
26.05.2016 08:58 13,6 C 20,6 C 13,9 C 96 % 0 lf 1016,1 hPa 0,0 l/m 2 min 0 min 451 W/m 4,2 km/h (1 Bft) 95,74 %
26.05.2016 09:00 13,7 C 21,1 C 14,4 C 96 % 0 lf 1016,1 hPa 0,0 l/m 2 min 0 min 460 W/m 8,4 km/h (2 Bft) 93,62 %
26.05.2016 09:02 13,8 C 20,6 C 14,4 C 96 % 0 lf 1016,1 hPa 0,0 l/m 2 min 0 min 466 W/m 8,4 km/h (2 Bft) 93,48 %
26.05.2016 09:04 13,9 C 20,0 C 14,4 C 96 % 0 lf 1016,2 hPa 0,0 l/m 2 min 0 min 471 W/m 8,4 km/h (2 Bft) 93,62 %
26.05.2016 09:06 14,1 C 20,6 C 14,4 C 95 % 0 lf 1016,1 hPa 0,0 l/m 2 min 0 min 478 W/m 8,4 km/h (2 Bft) 97,87 %
26.05.2016 09:08 14,2 C 21,1 C 14,4 C 95 % 0 lf 1016,1 hPa 0,0 l/m 2 min 0 min 482 W/m 8,4 km/h (2 Bft) 97,87 %
26.05.2016 09:10 14,2 C 20,6 C 14,4 C 95 % 0 lf 1016,1 hPa 0,0 l/m 2 min 0 min 489 W/m 10,5 km/h (2 Bft) 97,87 %
26.05.2016 09:12 14,4 C 19,4 C 14,4 C 94 % 0 lf 1016,2 hPa 0,0 l/m 2 min 0 min 496 W/m 10,5 km/h (2 Bft) 95,74 %
26.05.2016 09:14 14,5 C 20,0 C 15,0 C 94 % 0 lf 1016,1 hPa 0,0 l/m 2 min 0 min 496 W/m 10,5 km/h (2 Bft) 93,48 %
26.05.2016 09:16 14,6 C 19,4 C 15,0 C 94 % 0 lf 1016,1 hPa 0,0 l/m 2 min 0 min 508 W/m 8,4 km/h (2 Bft) 95,74 %
26.05.2016 09:18 14,7 C 20,6 C 15,0 C 93 % 0 lf 1016,1 hPa 0,0 l/m 2 min 0 min 513 W/m 8,4 km/h (2 Bft) 97,87 %
26.05.2016 09:20 14,9 C 21,7 C 15,0 C 93 % 0 lf 1016,1 hPa 0,0 l/m 2 min 0 min 519 W/m 8,4 km/h (2 Bft) 95,74 %
26.05.2016 09:22 15,0 C 23,3 C 15,0 C 92 % 0 lf 1016,1 hPa 0,0 l/m 2 min 0 min 523 W/m 6,3 km/h (2 Bft) 91,49 %
26.05.2016 09:24 15,1 C 22,2 C 15,6 C 92 % 0 lf 1016,1 hPa 0,0 l/m 2 min 0 min 531 W/m 10,5 km/h (2 Bft) 95,74 %
26.05.2016 09:26 15,2 C 22,8 C 15,6 C 92 % 0 lf 1016,1 hPa 0,0 l/m 2 min 0 min 541 W/m 8,4 km/h (2 Bft) 95,65 %
26.05.2016 09:28 15,3 C 22,2 C 15,6 C 91 % 0 lf 1016,1 hPa 0,0 l/m 2 min 0 min 548 W/m 8,4 km/h (2 Bft) 97,87 %
26.05.2016 09:30 15,5 C 22,2 C 15,6 C 90 % 0 lf 1016,1 hPa 0,0 l/m 2 min 0 min 554 W/m 6,3 km/h (2 Bft) 95,74 %
26.05.2016 09:32 15,6 C 23,3 C 16,1 C 90 % 0 lf 1016,1 hPa 0,0 l/m 2 min 0 min 553 W/m 10,5 km/h (2 Bft) 97,87 %
26.05.2016 09:34 15,7 C 22,8 C 16,1 C 89 % 0 lf 1016,1 hPa 0,0 l/m 2 min 0 min 558 W/m 10,5 km/h (2 Bft) 95,74 %
26.05.2016 09:36 15,8 C 22,8 C 16,1 C 88 % 0 lf 1016,1 hPa 0,0 l/m 2 min 0 min 562 W/m 10,5 km/h (2 Bft) 97,87 %
26.05.2016 09:38 16,0 C 23,9 C 16,7 C 87 % 0 lf 1016,1 hPa 0,0 l/m 2 min 0 min 576 W/m 10,5 km/h (2 Bft) 95,65 %
26.05.2016 09:40 16,1 C 23,3 C 16,7 C 86 % 0 lf 1016,1 hPa 0,0 l/m 2 min 0 min 584 W/m 12,6 km/h (3 Bft) 95,74 %
26.05.2016 09:42 16,3 C 24,4 C 16,7 C 86 % 0 lf 1016,1 hPa 0,0 l/m 2 min 0 min 584 W/m 10,5 km/h (2 Bft) 100,00 %
26.05.2016 09:44 16,4 C 24,4 C 16,7 C 85 % 0 lf 1016,1 hPa 0,0 l/m 2 min 0 min 568 W/m 8,4 km/h (2 Bft) 97,87 %
26.05.2016 09:46 16,6 C 23,9 C 17,2 C 85 % 0 lf 1016,1 hPa 0,0 l/m 2 min 0 min 592 W/m 8,4 km/h (2 Bft) 97,87 %
26.05.2016 09:48 16,7 C 24,4 C 17,2 C 85 % 0 lf 1016,1 hPa 0,0 l/m 2 min 0 min 606 W/m 8,4 km/h (2 Bft) 100,00 %
26.05.2016 09:50 16,8 C 23,9 C 17,8 C 84 % 0 lf 1016,0 hPa 0,0 l/m 2 min 0 min 607 W/m 10,5 km/h (2 Bft) 100,00 %
26.05.2016 09:52 16,9 C 23,3 C 18,9 C 83 % 0 lf 1016,0 hPa 0,0 l/m 2 min 0 min 610 W/m 10,5 km/h (2 Bft) 93,62 %
26.05.2016 09:54 17,1 C 22,8 C 20,6 C 82 % 0 lf 1016,0 hPa 0,0 l/m 2 min 0 min 615 W/m 14,6 km/h (3 Bft) 97,87 %
26.05.2016 09:56 17,2 C 23,3 C 21,7 C 81 % 0 lf 1016,1 hPa 0,0 l/m 2 min 0 min 621 W/m 8,4 km/h (2 Bft) 97,87 %
26.05.2016 09:58 17,3 C 23,9 C 22,2 C 81 % 0 lf 1016,1 hPa 0,0 l/m 2 min 0 min 629 W/m 10,5 km/h (2 Bft) 97,87 %
26.05.2016 10:00 17,4 C 24,4 C 22,2 C 81 % 0 lf 1016,1 hPa 0,0 l/m 2 min 0 min 641 W/m 8,4 km/h (2 Bft) 97,87 %
26.05.2016 10:02 17,5 C 24,4 C 23,3 C 80 % 0 lf 1016,0 hPa 0,0 l/m 2 min 0 min 643 W/m 6,3 km/h (2 Bft) 95,65 %
26.05.2016 10:04 17,6 C 25,6 C 23,3 C 80 % 0 lf 1016,0 hPa 0,0 l/m 2 min 0 min 650 W/m 14,6 km/h (3 Bft) 95,74 %
26.05.2016 10:06 17,7 C 24,4 C 23,3 C 79 % 0 lf 1016,0 hPa 0,0 l/m 2 min 0 min 644 W/m 8,4 km/h (2 Bft) 95,74 %
26.05.2016 10:08 17,8 C 26,1 C 23,9 C 79 % 0 lf 1016,0 hPa 0,0 l/m 2 min 0 min 656 W/m 6,3 km/h (2 Bft) 97,87 %
26.05.2016 10:10 17,9 C 25,0 C 23,3 C 78 % 0 lf 1016,0 hPa 0,0 l/m 2 min 0 min 665 W/m 10,5 km/h (2 Bft) 95,74 %
26.05.2016 10:12 18,0 C 25,0 C 23,3 C 78 % 0 lf 1016,0 hPa 0,0 l/m 2 min 0 min 647 W/m 14,6 km/h (3 Bft) 95,74 %
26.05.2016 10:14 18,1 C 23,9 C 22,8 C 77 % 0 lf 1015,9 hPa 0,0 l/m 2 min 0 min 634 W/m 10,5 km/h (2 Bft) 95,65 %
26.05.2016 10:16 18,1 C 23,3 C 22,8 C 76 % 0 lf 1015,9 hPa 0,0 l/m 2 min 0 min 658 W/m 8,4 km/h (2 Bft) 97,87 %
26.05.2016 10:18 18,2 C 25,6 C 23,3 C 76 % 0 lf 1015,9 hPa 0,0 l/m 2 min 0 min 673 W/m 10,5 km/h (2 Bft) 97,87 %
26.05.2016 10:20 18,3 C 26,7 C 24,4 C 77 % 0 lf 1015,9 hPa 0,0 l/m 2 min 0 min 683 W/m 8,4 km/h (2 Bft) 95,74 %
26.05.2016 10:22 18,4 C 26,1 C 24,4 C 76 % 0 lf 1015,9 hPa 0,0 l/m 2 min 0 min 665 W/m 12,6 km/h (3 Bft) 97,87 %
26.05.2016 10:24 18,6 C 25,0 C 24,4 C 75 % 0 lf 1015,9 hPa 0,0 l/m 2 min 0 min 694 W/m 6,3 km/h (2 Bft) 95,65 %
26.05.2016 10:26 18,7 C 25,6 C 25,0 C 75 % 0 lf 1015,9 hPa 0,0 l/m 2 min 0 min 688 W/m 14,6 km/h (3 Bft) 95,74 %
26.05.2016 10:28 18,7 C 25,6 C 25,0 C 75 % 0 lf 1015,9 hPa 0,0 l/m 2 min 0 min 696 W/m 8,4 km/h (2 Bft) 22,22 %
26.05.2016 10:30 18,8 C 26,1 C 25,0 C 74 % 0 lf 1015,8 hPa 0,0 l/m 2 min 0 min 708 W/m 8,4 km/h (2 Bft) 97,22 %
26.05.2016 10:32 18,9 C 25,6 C 23,3 C 74 % 0 lf 1015,9 hPa 0,0 l/m 2 min 0 min 502 W/m 10,5 km/h (2 Bft) 95,74 %
26.05.2016 10:34 19,0 C 27,2 C 22,8 C 73 % 0 lf 1015,8 hPa 0,0 l/m 2 min 0 min 371 W/m 10,5 km/h (2 Bft) 95,74 %
26.05.2016 10:36 19,0 C 26,7 C 23,3 C 73 % 0 lf 1015,8 hPa 0,0 l/m 2 min 0 min 561 W/m 12,6 km/h (3 Bft) 91,30 %
26.05.2016 10:38 19,0 C 26,1 C 24,4 C 72 % 0 lf 1015,8 hPa 0,0 l/m 2 min 0 min 751 W/m 10,5 km/h (2 Bft) 95,74 %
26.05.2016 10:40 19,1 C 26,7 C 24,4 C 73 % 0 lf 1015,7 hPa 0,0 l/m 2 min 0 min 753 W/m 10,5 km/h (2 Bft) 97,87 %
26.05.2016 10:42 19,2 C 27,2 C 25,6 C 73 % 0 lf 1015,8 hPa 0,0 l/m 2 min 0 min 780 W/m 14,6 km/h (3 Bft) 95,74 %
26.05.2016 10:44 19,3 C 27,2 C 25,0 C 73 % 0 lf 1015,8 hPa 0,0 l/m 2 min 0 min 767 W/m 10,5 km/h (2 Bft) 93,62 %
26.05.2016 10:46 19,3 C 26,7 C 23,9 C 71 % 0 lf 1015,7 hPa 0,0 l/m 2 min 0 min 779 W/m 6,3 km/h (2 Bft) 97,87 %
26.05.2016 10:48 19,4 C 23,9 C 23,9 C 71 % 0 lf 1015,8 hPa 0,0 l/m 2 min 0 min 727 W/m 23,0 km/h (4 Bft) 95,65 %
26.05.2016 10:50 19,4 C 25,0 C 23,9 C 71 % 0 lf 1015,9 hPa 0,0 l/m 2 min 0 min 710 W/m 12,6 km/h (3 Bft) 95,74 %
26.05.2016 10:52 19,4 C 24,4 C 23,9 C 71 % 0 lf 1015,9 hPa 0,0 l/m 2 min 0 min 723 W/m 12,6 km/h (3 Bft) 95,74 %
26.05.2016 10:54 19,4 C 25,0 C 23,9 C 71 % 0 lf 1015,9 hPa 0,0 l/m 2 min 0 min 750 W/m 16,7 km/h (3 Bft) 97,87 %
26.05.2016 10:56 19,4 C 22,8 C 23,3 C 71 % 0 lf 1015,9 hPa 0,0 l/m 2 min 0 min 783 W/m 12,6 km/h (3 Bft) 97,87 %
26.05.2016 10:58 19,4 C 24,4 C 23,9 C 71 % 0 lf 1016,0 hPa 0,0 l/m 2 min 0 min 733 W/m 10,5 km/h (2 Bft) 95,74 %
26.05.2016 11:00 19,4 C 26,7 C 23,3 C 70 % 0 lf 1015,9 hPa 0,0 l/m 2 min 0 min 754 W/m 8,4 km/h (2 Bft) 97,83 %
26.05.2016 11:02 19,4 C 26,1 C 23,9 C 70 % 0 lf 1015,8 hPa 0,0 l/m 2 min 0 min 720 W/m 8,4 km/h (2 Bft) 97,87 %
26.05.2016 11:04 19,4 C 25,0 C 23,9 C 69 % 0 lf 1015,8 hPa 0,0 l/m 2 min 0 min 737 W/m 10,5 km/h (2 Bft) 97,87 %
26.05.2016 11:06 19,4 C 25,0 C 23,9 C 70 % 0 lf 1015,8 hPa 0,0 l/m 2 min 0 min 696 W/m 10,5 km/h (2 Bft) 97,87 %
26.05.2016 11:08 19,5 C 25,6 C 24,4 C 71 % 0 lf 1015,8 hPa 0,0 l/m 2 min 0 min 574 W/m 10,5 km/h (2 Bft) 95,74 %
26.05.2016 11:10 19,5 C 24,4 C 23,9 C 70 % 0 lf 1015,8 hPa 0,0 l/m 2 min 0 min 628 W/m 8,4 km/h (2 Bft) 95,74 %
26.05.2016 11:12 19,6 C 24,4 C 23,9 C 71 % 0 lf 1015,8 hPa 0,0 l/m 2 min 0 min 691 W/m 12,6 km/h (3 Bft) 93,48 %
26.05.2016 11:14 19,6 C 26,7 C 24,4 C 70 % 0 lf 1015,8 hPa 0,0 l/m 2 min 0 min 840 W/m 14,6 km/h (3 Bft) 93,62 %
26.05.2016 11:16 19,7 C 25,0 C 24,4 C 70 % 0 lf 1015,8 hPa 0,0 l/m 2 min 0 min 844 W/m 14,6 km/h (3 Bft) 91,49 %
26.05.2016 11:18 19,8 C 26,1 C 25,6 C 69 % 0 lf 1015,8 hPa 0,0 l/m 2 min 0 min 874 W/m 12,6 km/h (3 Bft) 95,74 %
26.05.2016 11:20 19,8 C 23,9 C 24,4 C 68 % 0 lf 1015,8 hPa 0,0 l/m 2 min 0 min 914 W/m 10,5 km/h (2 Bft) 91,49 %
26.05.2016 11:22 19,8 C 25,0 C 23,9 C 69 % 0 lf 1015,8 hPa 0,0 l/m 2 min 0 min 814 W/m 14,6 km/h (3 Bft) 97,87 %
26.05.2016 11:24 19,8 C 27,2 C 23,9 C 70 % 0 lf 1015,8 hPa 0,0 l/m 2 min 0 min 723 W/m 6,3 km/h (2 Bft) 95,65 %
26.05.2016 11:26 19,9 C 26,7 C 24,4 C 68 % 0 lf 1015,8 hPa 0,0 l/m 2 min 0 min 807 W/m 10,5 km/h (2 Bft) 97,87 %
26.05.2016 11:28 19,9 C 26,7 C 23,9 C 68 % 0 lf 1015,7 hPa 0,0 l/m 2 min 0 min 844 W/m 8,4 km/h (2 Bft) 97,87 %
26.05.2016 11:30 20,1 C 27,8 C 23,3 C 67 % 0 lf 1015,7 hPa 0,0 l/m 2 min 0 min 801 W/m 6,3 km/h (2 Bft) 91,49 %
26.05.2016 11:32 20,1 C 27,8 C 23,3 C 67 % 0 lf 1015,7 hPa 0,0 l/m 2 min 0 min 788 W/m 6,3 km/h (2 Bft) 97,87 %
26.05.2016 11:34 20,2 C 28,3 C 23,3 C 67 % 0 lf 1015,7 hPa 0,0 l/m 2 min 0 min 797 W/m 10,5 km/h (2 Bft) 97,83 %
26.05.2016 11:36 20,3 C 28,3 C 24,4 C 67 % 0 lf 1015,6 hPa 0,0 l/m 2 min 0 min 858 W/m 4,2 km/h (1 Bft) 93,62 %
26.05.2016 11:38 20,3 C 28,3 C 23,9 C 66 % 0 lf 1015,6 hPa 0,0 l/m 2 min 0 min 765 W/m 16,7 km/h (3 Bft) 93,62 %
26.05.2016 11:40 20,4 C 27,8 C 23,9 C 66 % 0 lf 1015,6 hPa 0,0 l/m 2 min 0 min 803 W/m 10,5 km/h (2 Bft) 93,62 %
26.05.2016 11:42 20,4 C 26,1 C 23,9 C 63 % 0 lf 1015,6 hPa 0,0 l/m 2 min 0 min 818 W/m 12,6 km/h (3 Bft) 93,62 %
26.05.2016 11:44 20,5 C 27,2 C 25,0 C 63 % 0 lf 1015,6 hPa 0,0 l/m 2 min 0 min 858 W/m 10,5 km/h (2 Bft) 93,62 %
26.05.2016 11:46 20,6 C 27,8 C 26,1 C 64 % 0 lf 1015,7 hPa 0,0 l/m 2 min 0 min 912 W/m 10,5 km/h (2 Bft) 95,65 %
26.05.2016 11:48 20,6 C 28,9 C 27,2 C 65 % 0 lf 1015,6 hPa 0,0 l/m 2 min 0 min 944 W/m 8,4 km/h (2 Bft) 93,62 %
26.05.2016 11:50 20,7 C 31,1 C 26,7 C 64 % 0 lf 1015,6 hPa 0,0 l/m 2 min 0 min 940 W/m 4,2 km/h (1 Bft) 95,74 %
26.05.2016 11:52 20,8 C 27,8 C 25,0 C 62 % 0 lf 1015,6 hPa 0,0 l/m 2 min 0 min 904 W/m 14,6 km/h (3 Bft) 89,36 %
26.05.2016 11:54 20,8 C 27,2 C 23,9 C 61 % 0 lf 1015,5 hPa 0,0 l/m 0 min 0 min 381 W/m 12,6 km/h (3 Bft) 93,62 %
26.05.2016 11:56 20,7 C 26,7 C 22,8 C 59 % 0 lf 1015,5 hPa 0,0 l/m 0 min 0 min 381 W/m 10,5 km/h (2 Bft) 95,74 %
26.05.2016 11:58 20,7 C 26,7 C 24,4 C 59 % 0 lf 1015,6 hPa 0,0 l/m 2 min 0 min 863 W/m 12,6 km/h (3 Bft) 93,48 %
26.05.2016 12:00 20,8 C 28,3 C 26,1 C 61 % 0 lf 1015,6 hPa 0,0 l/m 2 min 0 min 827 W/m 8,4 km/h (2 Bft) 93,62 %
26.05.2016 12:02 20,9 C 30,0 C 26,7 C 64 % 0 lf 1015,6 hPa 0,0 l/m 2 min 0 min 721 W/m 12,6 km/h (3 Bft) 93,62 %
26.05.2016 12:04 21,0 C 30,0 C 26,7 C 61 % 0 lf 1015,6 hPa 0,0 l/m 2 min 0 min 633 W/m 10,5 km/h (2 Bft) 91,49 %
26.05.2016 12:06 21,1 C 29,4 C 26,1 C 59 % 0 lf 1015,6 hPa 0,0 l/m 0 min 0 min 387 W/m 8,4 km/h (2 Bft) 95,74 %
26.05.2016 12:08 21,1 C 28,3 C 23,9 C 59 % 0 lf 1015,6 hPa 0,0 l/m 0 min 0 min 222 W/m 6,3 km/h (2 Bft) 97,87 %
26.05.2016 12:10 21,2 C 26,7 C 22,8 C 59 % 0 lf 1015,6 hPa 0,0 l/m 0 min 0 min 222 W/m 6,3 km/h (2 Bft) 95,65 %
26.05.2016 12:12 21,1 C 26,1 C 21,7 C 59 % 0 lf 1015,6 hPa 0,0 l/m 0 min 0 min 242 W/m 6,3 km/h (2 Bft) 97,87 %
26.05.2016 12:14 21,1 C 23,9 C 21,1 C 59 % 0 lf 1015,6 hPa 0,0 l/m 0 min 0 min 270 W/m 4,2 km/h (1 Bft) 97,87 %
26.05.2016 12:16 21,1 C 24,4 C 22,8 C 60 % 0 lf 1015,6 hPa 0,0 l/m 0 min 0 min 288 W/m 6,3 km/h (2 Bft) 87,23 %
26.05.2016 12:18 21,0 C 23,9 C 22,8 C 59 % 0 lf 1015,6 hPa 0,0 l/m 2 min 0 min 570 W/m 6,3 km/h (2 Bft) 95,74 %
26.05.2016 12:20 20,9 C 26,1 C 23,9 C 59 % 0 lf 1015,6 hPa 0,0 l/m 2 min 0 min 938 W/m 4,2 km/h (1 Bft) 95,74 %
26.05.2016 12:22 20,9 C 24,4 C 23,3 C 59 % 0 lf 1015,6 hPa 0,0 l/m 2 min 0 min 907 W/m 6,3 km/h (2 Bft) 95,65 %
26.05.2016 12:24 20,8 C 27,2 C 23,9 C 59 % 0 lf 1015,5 hPa 0,0 l/m 2 min 0 min 816 W/m 4,2 km/h (1 Bft) 97,87 %
26.05.2016 12:26 20,9 C 30,0 C 25,0 C 61 % 0 lf 1015,6 hPa 0,0 l/m 2 min 0 min 973 W/m 4,2 km/h (1 Bft) 95,74 %
26.05.2016 12:28 21,0 C 29,4 C 25,6 C 62 % 0 lf 1015,6 hPa 0,0 l/m 2 min 0 min 1041 W/m 8,4 km/h (2 Bft) 97,87 %
26.05.2016 12:30 21,1 C 30,6 C 25,0 C 61 % 0 lf 1015,6 hPa 0,0 l/m 2 min 0 min 914 W/m 8,4 km/h (2 Bft) 97,87 %
26.05.2016 12:32 21,2 C 32,2 C 25,0 C 61 % 0 lf 1015,6 hPa 0,0 l/m 2 min 0 min 786 W/m 12,6 km/h (3 Bft) 95,65 %
26.05.2016 12:34 21,2 C 30,0 C 24,4 C 61 % 0 lf 1015,5 hPa 0,0 l/m 2 min 0 min 1074 W/m 8,4 km/h (2 Bft) 93,62 %
26.05.2016 12:36 21,3 C 27,2 C 23,9 C 60 % 0 lf 1015,6 hPa 0,0 l/m 2 min 0 min 568 W/m 8,4 km/h (2 Bft) 95,74 %
26.05.2016 12:38 21,3 C 26,7 C 24,4 C 59 % 0 lf 1015,5 hPa 0,0 l/m 2 min 0 min 638 W/m 6,3 km/h (2 Bft) 93,62 %
26.05.2016 12:40 21,2 C 25,0 C 23,3 C 58 % 0 lf 1015,6 hPa 0,0 l/m 2 min 0 min 886 W/m 6,3 km/h (2 Bft) 97,87 %
26.05.2016 12:42 21,2 C 23,9 C 22,2 C 58 % 0 lf 1015,6 hPa 0,0 l/m 0 min 0 min 277 W/m 8,4 km/h (2 Bft) 97,87 %
26.05.2016 12:44 21,2 C 26,1 C 23,3 C 58 % 0 lf 1015,6 hPa 0,0 l/m 0 min 0 min 317 W/m 10,5 km/h (2 Bft) 93,48 %
26.05.2016 12:46 21,2 C 27,8 C 24,4 C 61 % 0 lf 1015,6 hPa 0,0 l/m 2 min 0 min 1012 W/m 10,5 km/h (2 Bft) 95,74 %
26.05.2016 12:48 21,2 C 26,1 C 25,6 C 59 % 0 lf 1015,6 hPa 0,0 l/m 2 min 0 min 995 W/m 12,6 km/h (3 Bft) 97,87 %
26.05.2016 12:50 21,3 C 27,8 C 25,6 C 60 % 0 lf 1015,6 hPa 0,0 l/m 2 min 0 min 990 W/m 8,4 km/h (2 Bft) 100,00 %
26.05.2016 12:52 21,3 C 30,0 C 26,1 C 61 % 0 lf 1015,5 hPa 0,0 l/m 2 min 0 min 960 W/m 6,3 km/h (2 Bft) 97,87 %
26.05.2016 12:54 21,4 C 31,1 C 26,7 C 60 % 0 lf 1015,6 hPa 0,0 l/m 2 min 0 min 936 W/m 8,4 km/h (2 Bft) 97,87 %
26.05.2016 12:56 21,6 C 31,7 C 27,8 C 59 % 0 lf 1015,6 hPa 0,0 l/m 2 min 0 min 977 W/m 6,3 km/h (2 Bft) 100,00 %
26.05.2016 12:58 21,7 C 31,7 C 27,8 C 59 % 0 lf 1015,5 hPa 0,0 l/m 2 min 0 min 975 W/m 10,5 km/h (2 Bft) 100,00 %
26.05.2016 13:00 21,9 C 33,9 C 27,2 C 61 % 0 lf 1015,5 hPa 0,0 l/m 2 min 0 min 964 W/m 10,5 km/h (2 Bft) 97,87 %
26.05.2016 13:02 22,1 C 32,8 C 26,7 C 59 % 0 lf 1015,5 hPa 0,0 l/m 2 min 0 min 973 W/m 10,5 km/h (2 Bft) 95,74 %
26.05.2016 13:04 22,3 C 31,7 C 25,6 C 57 % 0 lf 1015,5 hPa 0,0 l/m 2 min 0 min 959 W/m 10,5 km/h (2 Bft) 100,00 %
26.05.2016 13:06 22,3 C 30,0 C 24,4 C 56 % 0 lf 1015,4 hPa 0,0 l/m 2 min 0 min 986 W/m 8,4 km/h (2 Bft) 100,00 %
26.05.2016 13:08 22,4 C 30,0 C 24,4 C 55 % 0 lf 1015,4 hPa 0,0 l/m 2 min 0 min 974 W/m 2,1 km/h (1 Bft) 100,00 %
26.05.2016 13:10 22,5 C 30,6 C 23,9 C 56 % 0 lf 1015,5 hPa 0,0 l/m 2 min 0 min 965 W/m 6,3 km/h (2 Bft) 97,87 %
26.05.2016 13:12 22,6 C 32,2 C 24,4 C 57 % 0 lf 1015,5 hPa 0,0 l/m 2 min 0 min 1002 W/m 4,2 km/h (1 Bft) 100,00 %
26.05.2016 13:14 22,6 C 30,6 C 23,3 C 55 % 0 lf 1015,5 hPa 0,0 l/m 2 min 0 min 992 W/m 8,4 km/h (2 Bft) 100,00 %
26.05.2016 13:16 22,7 C 28,9 C 23,9 C 54 % 0 lf 1015,5 hPa 0,0 l/m 2 min 0 min 995 W/m 8,4 km/h (2 Bft) 100,00 %
26.05.2016 13:18 22,7 C 29,4 C 23,3 C 55 % 0 lf 1015,5 hPa 0,0 l/m 2 min 0 min 990 W/m 8,4 km/h (2 Bft) 100,00 %
26.05.2016 13:20 22,8 C 29,4 C 23,9 C 56 % 0 lf 1015,4 hPa 0,0 l/m 2 min 0 min 990 W/m 10,5 km/h (2 Bft) 100,00 %
26.05.2016 13:22 22,9 C 31,1 C 23,9 C 56 % 0 lf 1015,5 hPa 0,0 l/m 2 min 0 min 1006 W/m 12,6 km/h (3 Bft) 95,74 %
26.05.2016 13:24 22,9 C 31,7 C 24,4 C 55 % 0 lf 1015,4 hPa 0,0 l/m 2 min 0 min 1017 W/m 14,6 km/h (3 Bft) 97,87 %
26.05.2016 13:26 23,0 C 32,8 C 24,4 C 55 % 0 lf 1015,5 hPa 0,0 l/m 2 min 0 min 1010 W/m 10,5 km/h (2 Bft) 100,00 %
26.05.2016 13:28 23,1 C 31,7 C 23,9 C 53 % 0 lf 1015,5 hPa 0,0 l/m 2 min 0 min 1002 W/m 10,5 km/h (2 Bft) 100,00 %
26.05.2016 13:30 23,1 C 29,4 C 23,3 C 51 % 0 lf 1015,4 hPa 0,0 l/m 2 min 0 min 995 W/m 8,4 km/h (2 Bft) 97,87 %
26.05.2016 13:32 23,1 C 31,1 C 23,3 C 53 % 0 lf 1015,6 hPa 0,0 l/m 2 min 0 min 995 W/m 10,5 km/h (2 Bft) 97,83 %
26.05.2016 13:34 23,2 C 31,7 C 22,2 C 52 % 0 lf 1015,5 hPa 0,0 l/m 2 min 0 min 973 W/m 6,3 km/h (2 Bft) 97,87 %
26.05.2016 13:36 23,2 C 31,7 C 22,2 C 51 % 0 lf 1015,5 hPa 0,0 l/m 2 min 0 min 966 W/m 10,5 km/h (2 Bft) 97,87 %
26.05.2016 13:38 23,2 C 31,1 C 22,2 C 51 % 0 lf 1015,4 hPa 0,0 l/m 2 min 0 min 962 W/m 10,5 km/h (2 Bft) 97,87 %
26.05.2016 13:40 23,2 C 28,9 C 22,2 C 51 % 0 lf 1015,4 hPa 0,0 l/m 2 min 0 min 965 W/m 10,5 km/h (2 Bft) 97,87 %
26.05.2016 13:42 23,1 C 26,7 C 21,7 C 50 % 0 lf 1015,5 hPa 0,0 l/m 2 min 0 min 971 W/m 8,4 km/h (2 Bft) 95,74 %
26.05.2016 13:44 22,9 C 27,2 C 22,2 C 52 % 0 lf 1015,5 hPa 0,0 l/m 2 min 0 min 972 W/m 6,3 km/h (2 Bft) 95,65 %
26.05.2016 13:46 22,9 C 28,9 C 22,8 C 54 % 0 lf 1015,4 hPa 0,0 l/m 2 min 0 min 975 W/m 8,4 km/h (2 Bft) 95,74 %
26.05.2016 13:48 22,9 C 28,9 C 22,8 C 53 % 0 lf 1015,4 hPa 0,0 l/m 2 min 0 min 975 W/m 6,3 km/h (2 Bft) 93,62 %
26.05.2016 13:50 23,0 C 30,6 C 23,3 C 56 % 0 lf 1015,3 hPa 0,0 l/m 2 min 0 min 988 W/m 6,3 km/h (2 Bft) 95,74 %
26.05.2016 13:52 23,1 C 32,2 C 22,8 C 52 % 0 lf 1015,4 hPa 0,0 l/m 2 min 0 min 974 W/m 8,4 km/h (2 Bft) 95,74 %
26.05.2016 13:54 23,2 C 31,7 C 22,8 C 54 % 0 lf 1015,4 hPa 0,0 l/m 2 min 0 min 966 W/m 10,5 km/h (2 Bft) 95,65 %
26.05.2016 13:56 23,2 C 30,0 C 22,8 C 52 % 0 lf 1015,3 hPa 0,0 l/m 2 min 0 min 973 W/m 10,5 km/h (2 Bft) 97,87 %
26.05.2016 13:58 23,2 C 28,9 C 22,8 C 53 % 0 lf 1015,4 hPa 0,0 l/m 2 min 0 min 988 W/m 14,6 km/h (3 Bft) 93,62 %
26.05.2016 14:00 23,3 C 31,1 C 23,3 C 54 % 0 lf 1015,3 hPa 0,0 l/m 2 min 0 min 1003 W/m 12,6 km/h (3 Bft) 97,87 %
26.05.2016 14:02 23,4 C 31,1 C 23,3 C 55 % 0 lf 1015,3 hPa 0,0 l/m 2 min 0 min 984 W/m 10,5 km/h (2 Bft) 97,87 %
26.05.2016 14:04 23,4 C 30,6 C 23,3 C 54 % 0 lf 1015,4 hPa 0,0 l/m 2 min 0 min 972 W/m 14,6 km/h (3 Bft) 97,87 %
26.05.2016 14:06 23,5 C 30,0 C 23,3 C 52 % 0 lf 1015,4 hPa 0,0 l/m 2 min 0 min 962 W/m 8,4 km/h (2 Bft) 95,74 %
26.05.2016 14:08 23,6 C 28,3 C 22,8 C 52 % 0 lf 1015,3 hPa 0,0 l/m 2 min 0 min 530 W/m 10,5 km/h (2 Bft) 97,83 %
26.05.2016 14:10 23,5 C 26,7 C 22,8 C 51 % 0 lf 1015,3 hPa 0,0 l/m 0 min 0 min 228 W/m 12,6 km/h (3 Bft) 95,74 %
26.05.2016 14:12 23,5 C 27,2 C 23,3 C 51 % 0 lf 1015,3 hPa 0,0 l/m 2 min 0 min 553 W/m 16,7 km/h (3 Bft) 93,62 %
26.05.2016 14:14 23,4 C 27,2 C 24,4 C 50 % 0 lf 1015,3 hPa 0,0 l/m 2 min 0 min 998 W/m 12,6 km/h (3 Bft) 95,74 %
26.05.2016 14:16 23,4 C 26,7 C 23,9 C 50 % 0 lf 1015,3 hPa 0,0 l/m 2 min 0 min 998 W/m 10,5 km/h (2 Bft) 91,49 %
26.05.2016 14:18 23,3 C 26,7 C 23,9 C 50 % 0 lf 1015,3 hPa 0,0 l/m 2 min 0 min 896 W/m 8,4 km/h (2 Bft) 93,48 %
26.05.2016 14:20 23,3 C 28,3 C 25,6 C 51 % 0 lf 1015,2 hPa 0,0 l/m 2 min 0 min 907 W/m 6,3 km/h (2 Bft) 95,74 %
26.05.2016 14:22 23,4 C 31,7 C 26,1 C 54 % 0 lf 1015,1 hPa 0,0 l/m 2 min 0 min 976 W/m 6,3 km/h (2 Bft) 93,62 %
26.05.2016 14:24 23,4 C 32,2 C 25,0 C 53 % 0 lf 1015,2 hPa 0,0 l/m 2 min 0 min 909 W/m 12,6 km/h (3 Bft) 93,62 %
26.05.2016 14:26 23,5 C 33,3 C 24,4 C 54 % 0 lf 1015,1 hPa 0,0 l/m 2 min 0 min 942 W/m 16,7 km/h (3 Bft) 91,49 %
26.05.2016 14:28 23,4 C 32,2 C 23,3 C 52 % 0 lf 1015,1 hPa 0,0 l/m 2 min 0 min 958 W/m 16,7 km/h (3 Bft) 93,62 %
26.05.2016 14:30 23,4 C 31,1 C 22,8 C 51 % 0 lf 1015,0 hPa 0,0 l/m 2 min 0 min 938 W/m 18,8 km/h (3 Bft) 95,65 %
26.05.2016 14:32 23,3 C 30,6 C 22,2 C 51 % 0 lf 1015,1 hPa 0,0 l/m 2 min 0 min 899 W/m 8,4 km/h (2 Bft) 93,62 %
26.05.2016 14:34 23,3 C 28,3 C 21,7 C 51 % 0 lf 1015,1 hPa 0,0 l/m 0 min 0 min 400 W/m 16,7 km/h (3 Bft) 91,49 %
26.05.2016 14:36 23,2 C 28,9 C 21,7 C 53 % 0 lf 1015,1 hPa 0,0 l/m 0 min 0 min 333 W/m 12,6 km/h (3 Bft) 91,49 %
26.05.2016 14:38 23,1 C 30,6 C 22,2 C 53 % 0 lf 1015,1 hPa 0,0 l/m 2 min 0 min 944 W/m 16,7 km/h (3 Bft) 91,49 %
26.05.2016 14:40 23,0 C 28,9 C 21,7 C 52 % 0 lf 1015,1 hPa 0,0 l/m 2 min 0 min 981 W/m 20,9 km/h (4 Bft) 93,62 %
26.05.2016 14:42 22,8 C 27,2 C 21,7 C 53 % 0 lf 1015,1 hPa 0,0 l/m 2 min 0 min 628 W/m 12,6 km/h (3 Bft) 91,30 %
26.05.2016 14:44 22,7 C 27,8 C 21,7 C 53 % 0 lf 1015,1 hPa 0,0 l/m 2 min 0 min 433 W/m 10,5 km/h (2 Bft) 93,62 %
26.05.2016 14:46 22,7 C 30,6 C 22,2 C 55 % 0 lf 1015,0 hPa 0,0 l/m 2 min 0 min 978 W/m 16,7 km/h (3 Bft) 89,36 %
26.05.2016 14:48 22,8 C 31,7 C 22,8 C 55 % 0 lf 1015,1 hPa 0,0 l/m 2 min 0 min 952 W/m 18,8 km/h (3 Bft) 93,62 %
26.05.2016 14:50 22,8 C 30,0 C 22,8 C 55 % 0 lf 1015,1 hPa 0,0 l/m 2 min 0 min 958 W/m 20,9 km/h (4 Bft) 95,74 %
26.05.2016 14:52 22,9 C 28,9 C 22,8 C 54 % 0 lf 1015,1 hPa 0,0 l/m 2 min 0 min 958 W/m 10,5 km/h (2 Bft) 93,62 %
26.05.2016 14:54 22,9 C 30,6 C 22,2 C 53 % 0 lf 1015,0 hPa 0,0 l/m 2 min 0 min 915 W/m 10,5 km/h (2 Bft) 95,65 %
26.05.2016 14:56 23,0 C 30,0 C 22,2 C 54 % 0 lf 1015,1 hPa 0,0 l/m 2 min 0 min 856 W/m 10,5 km/h (2 Bft) 95,74 %
26.05.2016 14:58 23,1 C 31,1 C 22,8 C 53 % 0 lf 1015,0 hPa 0,0 l/m 2 min 0 min 868 W/m 6,3 km/h (2 Bft) 93,62 %
26.05.2016 15:00 23,1 C 32,2 C 22,2 C 52 % 0 lf 1015,0 hPa 0,0 l/m 2 min 0 min 881 W/m 10,5 km/h (2 Bft) 93,62 %
26.05.2016 15:02 23,2 C 30,0 C 22,2 C 52 % 0 lf 1015,0 hPa 0,0 l/m 2 min 0 min 885 W/m 12,6 km/h (3 Bft) 93,62 %
26.05.2016 15:04 23,2 C 30,0 C 22,2 C 52 % 0 lf 1015,0 hPa 0,0 l/m 2 min 0 min 903 W/m 12,6 km/h (3 Bft) 95,74 %
26.05.2016 15:06 23,2 C 30,0 C 22,8 C 53 % 0 lf 1015,0 hPa 0,0 l/m 2 min 0 min 913 W/m 16,7 km/h (3 Bft) 95,65 %
26.05.2016 15:08 23,2 C 31,1 C 22,8 C 52 % 0 lf 1015,0 hPa 0,0 l/m 2 min 0 min 912 W/m 12,6 km/h (3 Bft) 91,49 %
26.05.2016 15:10 23,3 C 32,2 C 22,8 C 52 % 0 lf 1014,9 hPa 0,0 l/m 2 min 0 min 906 W/m 10,5 km/h (2 Bft) 93,62 %
26.05.2016 15:12 23,3 C 32,2 C 22,8 C 51 % 0 lf 1015,0 hPa 0,0 l/m 2 min 0 min 897 W/m 8,4 km/h (2 Bft) 100,00 %
26.05.2016 15:14 23,3 C 30,0 C 22,8 C 51 % 0 lf 1015,0 hPa 0,0 l/m 2 min 0 min 881 W/m 6,3 km/h (2 Bft) 97,87 %
26.05.2016 15:16 23,3 C 30,6 C 22,8 C 53 % 0 lf 1014,9 hPa 0,0 l/m 2 min 0 min 876 W/m 10,5 km/h (2 Bft) 97,87 %
26.05.2016 15:18 23,4 C 30,6 C 22,8 C 51 % 0 lf 1014,9 hPa 0,0 l/m 2 min 0 min 873 W/m 14,6 km/h (3 Bft) 97,83 %
26.05.2016 15:20 23,4 C 30,0 C 22,8 C 51 % 0 lf 1014,9 hPa 0,0 l/m 2 min 0 min 864 W/m 16,7 km/h (3 Bft) 97,87 %
26.05.2016 15:22 23,4 C 28,3 C 22,2 C 50 % 0 lf 1014,9 hPa 0,0 l/m 2 min 0 min 875 W/m 6,3 km/h (2 Bft) 95,74 %
26.05.2016 15:24 23,3 C 27,2 C 22,2 C 50 % 0 lf 1014,9 hPa 0,0 l/m 2 min 0 min 874 W/m 8,4 km/h (2 Bft) 97,87 %
26.05.2016 15:26 23,3 C 27,8 C 22,2 C 51 % 0 lf 1014,8 hPa 0,0 l/m 2 min 0 min 884 W/m 6,3 km/h (2 Bft) 100,00 %
26.05.2016 15:28 23,3 C 28,3 C 22,2 C 51 % 0 lf 1014,8 hPa 0,0 l/m 2 min 0 min 892 W/m 2,1 km/h (1 Bft) 100,00 %
26.05.2016 15:30 23,3 C 29,4 C 22,8 C 53 % 0 lf 1014,8 hPa 0,0 l/m 2 min 0 min 864 W/m 8,4 km/h (2 Bft) 95,74 %
26.05.2016 15:32 23,4 C 30,0 C 23,3 C 53 % 0 lf 1014,8 hPa 0,0 l/m 2 min 0 min 820 W/m 14,6 km/h (3 Bft) 97,87 %
26.05.2016 15:34 23,5 C 30,6 C 23,3 C 51 % 0 lf 1014,8 hPa 0,0 l/m 2 min 0 min 780 W/m 14,6 km/h (3 Bft) 95,74 %
26.05.2016 15:36 23,6 C 31,1 C 22,8 C 51 % 0 lf 1014,8 hPa 0,0 l/m 2 min 0 min 775 W/m 14,6 km/h (3 Bft) 97,87 %
26.05.2016 15:38 23,7 C 31,1 C 23,3 C 52 % 0 lf 1014,8 hPa 0,0 l/m 2 min 0 min 816 W/m 14,6 km/h (3 Bft) 100,00 %
26.05.2016 15:40 23,7 C 30,0 C 23,3 C 51 % 0 lf 1014,8 hPa 0,0 l/m 2 min 0 min 795 W/m 12,6 km/h (3 Bft) 97,83 %
26.05.2016 15:42 23,8 C 30,6 C 23,3 C 52 % 0 lf 1014,7 hPa 0,0 l/m 2 min 0 min 692 W/m 10,5 km/h (2 Bft) 100,00 %
26.05.2016 15:44 23,8 C 31,1 C 23,3 C 50 % 0 lf 1014,7 hPa 0,0 l/m 2 min 0 min 789 W/m 14,6 km/h (3 Bft) 100,00 %
26.05.2016 15:46 23,9 C 31,7 C 23,9 C 51 % 0 lf 1014,7 hPa 0,0 l/m 2 min 0 min 871 W/m 10,5 km/h (2 Bft) 97,87 %
26.05.2016 15:48 23,9 C 32,2 C 23,9 C 49 % 0 lf 1014,8 hPa 0,0 l/m 2 min 0 min 890 W/m 10,5 km/h (2 Bft) 100,00 %
26.05.2016 15:50 23,8 C 31,7 C 23,9 C 48 % 0 lf 1014,8 hPa 0,0 l/m 2 min 0 min 902 W/m 8,4 km/h (2 Bft) 95,74 %
26.05.2016 15:52 23,8 C 31,7 C 24,4 C 49 % 0 lf 1014,8 hPa 0,0 l/m 2 min 0 min 864 W/m 14,6 km/h (3 Bft) 97,83 %
26.05.2016 15:54 23,7 C 31,1 C 26,1 C 48 % 0 lf 1014,7 hPa 0,0 l/m 2 min 0 min 797 W/m 12,6 km/h (3 Bft) 97,87 %
26.05.2016 15:56 23,8 C 32,2 C 27,8 C 50 % 0 lf 1014,7 hPa 0,0 l/m 2 min 0 min 820 W/m 10,5 km/h (2 Bft) 100,00 %
26.05.2016 15:58 23,8 C 32,8 C 28,3 C 50 % 0 lf 1014,7 hPa 0,0 l/m 2 min 0 min 836 W/m 10,5 km/h (2 Bft) 100,00 %
26.05.2016 16:00 23,8 C 32,2 C 28,9 C 50 % 0 lf 1014,7 hPa 0,0 l/m 2 min 0 min 763 W/m 4,2 km/h (1 Bft) 100,00 %
26.05.2016 16:02 23,9 C 31,7 C 27,2 C 49 % 0 lf 1014,7 hPa 0,0 l/m 2 min 0 min 741 W/m 16,7 km/h (3 Bft) 95,74 %
26.05.2016 16:04 23,8 C 31,1 C 27,2 C 50 % 0 lf 1014,7 hPa 0,0 l/m 2 min 0 min 732 W/m 16,7 km/h (3 Bft) 100,00 %
26.05.2016 16:06 23,8 C 29,4 C 26,1 C 49 % 0 lf 1014,7 hPa 0,0 l/m 2 min 0 min 619 W/m 16,7 km/h (3 Bft) 100,00 %
26.05.2016 16:08 23,7 C 28,3 C 25,6 C 50 % 0 lf 1014,8 hPa 0,0 l/m 2 min 0 min 575 W/m 18,8 km/h (3 Bft) 97,87 %
26.05.2016 16:10 23,6 C 28,3 C 25,0 C 49 % 0 lf 1014,7 hPa 0,0 l/m 2 min 0 min 521 W/m 16,7 km/h (3 Bft) 97,87 %
26.05.2016 16:12 23,5 C 27,2 C 25,0 C 49 % 0 lf 1014,7 hPa 0,0 l/m 2 min 0 min 563 W/m 18,8 km/h (3 Bft) 93,62 %
26.05.2016 16:14 23,4 C 27,8 C 25,0 C 49 % 0 lf 1014,7 hPa 0,0 l/m 2 min 0 min 594 W/m 10,5 km/h (2 Bft) 100,00 %
26.05.2016 16:16 23,3 C 28,3 C 25,6 C 51 % 0 lf 1014,7 hPa 0,0 l/m 2 min 0 min 513 W/m 10,5 km/h (2 Bft) 100,00 %
26.05.2016 16:18 23,3 C 28,9 C 27,2 C 52 % 0 lf 1014,7 hPa 0,0 l/m 2 min 0 min 552 W/m 16,7 km/h (3 Bft) 100,00 %
26.05.2016 16:20 23,2 C 28,3 C 26,7 C 50 % 0 lf 1014,7 hPa 0,0 l/m 2 min 0 min 578 W/m 14,6 km/h (3 Bft) 97,87 %
26.05.2016 16:22 23,2 C 27,8 C 25,6 C 50 % 0 lf 1014,7 hPa 0,0 l/m 2 min 0 min 614 W/m 18,8 km/h (3 Bft) 100,00 %
26.05.2016 16:24 23,1 C 28,3 C 26,1 C 49 % 0 lf 1014,7 hPa 0,0 l/m 2 min 0 min 740 W/m 14,6 km/h (3 Bft) 97,87 %
26.05.2016 16:26 23,0 C 28,9 C 26,1 C 49 % 0 lf 1014,8 hPa 0,0 l/m 2 min 0 min 733 W/m 8,4 km/h (2 Bft) 100,00 %
26.05.2016 16:28 22,9 C 30,0 C 27,2 C 50 % 0 lf 1014,8 hPa 0,0 l/m 2 min 0 min 669 W/m 8,4 km/h (2 Bft) 97,83 %
26.05.2016 16:30 22,9 C 30,0 C 26,7 C 50 % 0 lf 1014,7 hPa 0,0 l/m 2 min 0 min 764 W/m 12,6 km/h (3 Bft) 100,00 %
26.05.2016 16:32 22,8 C 29,4 C 27,8 C 51 % 0 lf 1014,7 hPa 0,0 l/m 2 min 0 min 750 W/m 6,3 km/h (2 Bft) 97,87 %
26.05.2016 16:34 22,8 C 30,0 C 27,2 C 51 % 0 lf 1014,7 hPa 0,0 l/m 2 min 0 min 757 W/m 6,3 km/h (2 Bft) 97,87 %
26.05.2016 16:36 22,9 C 30,6 C 27,2 C 52 % 0 lf 1014,7 hPa 0,0 l/m 2 min 0 min 722 W/m 6,3 km/h (2 Bft) 97,87 %
26.05.2016 16:38 23,0 C 30,6 C 27,8 C 55 % 0 lf 1014,6 hPa 0,0 l/m 2 min 0 min 724 W/m 6,3 km/h (2 Bft) 97,87 %
26.05.2016 16:40 23,1 C 30,0 C 27,8 C 54 % 0 lf 1014,6 hPa 0,0 l/m 2 min 0 min 660 W/m 8,4 km/h (2 Bft) 93,48 %
26.05.2016 16:42 23,2 C 30,0 C 26,7 C 50 % 0 lf 1014,6 hPa 0,0 l/m 2 min 0 min 682 W/m 12,6 km/h (3 Bft) 91,49 %
26.05.2016 16:44 23,2 C 30,0 C 26,1 C 51 % 0 lf 1014,5 hPa 0,0 l/m 2 min 0 min 706 W/m 10,5 km/h (2 Bft) 91,49 %
26.05.2016 16:46 23,2 C 28,9 C 25,0 C 50 % 0 lf 1014,6 hPa 0,0 l/m 2 min 0 min 674 W/m 16,7 km/h (3 Bft) 93,62 %
26.05.2016 16:48 23,2 C 28,9 C 25,0 C 50 % 0 lf 1014,6 hPa 0,0 l/m 2 min 0 min 646 W/m 6,3 km/h (2 Bft) 91,49 %
26.05.2016 16:50 23,2 C 28,9 C 24,4 C 51 % 0 lf 1014,6 hPa 0,0 l/m 2 min 0 min 709 W/m 14,6 km/h (3 Bft) 93,48 %
26.05.2016 16:52 23,2 C 27,8 C 24,4 C 50 % 0 lf 1014,5 hPa 0,0 l/m 2 min 0 min 660 W/m 14,6 km/h (3 Bft) 91,49 %
26.05.2016 16:54 23,2 C 27,2 C 24,4 C 50 % 0 lf 1014,6 hPa 0,0 l/m 2 min 0 min 503 W/m 14,6 km/h (3 Bft) 93,62 %
26.05.2016 16:56 23,2 C 27,2 C 23,3 C 50 % 0 lf 1014,6 hPa 0,0 l/m 2 min 0 min 520 W/m 12,6 km/h (3 Bft) 87,23 %
26.05.2016 16:58 23,2 C 27,8 C 22,8 C 50 % 0 lf 1014,7 hPa 0,0 l/m 2 min 0 min 542 W/m 12,6 km/h (3 Bft) 91,49 %
26.05.2016 17:00 23,2 C 27,2 C 22,8 C 50 % 0 lf 1014,6 hPa 0,0 l/m 2 min 0 min 555 W/m 10,5 km/h (2 Bft) 87,23 %
26.05.2016 17:02 23,2 C 27,8 C 22,8 C 50 % 0 lf 1014,6 hPa 0,0 l/m 2 min 0 min 562 W/m 10,5 km/h (2 Bft) 93,48 %
26.05.2016 17:04 23,2 C 27,2 C 22,2 C 49 % 0 lf 1014,5 hPa 0,0 l/m 2 min 0 min 536 W/m 10,5 km/h (2 Bft) 95,74 %
26.05.2016 17:06 23,1 C 27,2 C 22,2 C 50 % 0 lf 1014,6 hPa 0,0 l/m 2 min 0 min 473 W/m 8,4 km/h (2 Bft) 93,62 %
26.05.2016 17:08 23,1 C 27,2 C 22,2 C 51 % 0 lf 1014,5 hPa 0,0 l/m 2 min 0 min 472 W/m 12,6 km/h (3 Bft) 91,49 %
26.05.2016 17:10 23,1 C 27,2 C 22,8 C 51 % 0 lf 1014,5 hPa 0,0 l/m 2 min 0 min 460 W/m 10,5 km/h (2 Bft) 91,49 %
26.05.2016 17:12 23,2 C 27,2 C 22,2 C 51 % 0 lf 1014,5 hPa 0,0 l/m 2 min 0 min 420 W/m 10,5 km/h (2 Bft) 93,62 %
26.05.2016 17:14 23,1 C 26,7 C 22,2 C 50 % 0 lf 1014,5 hPa 0,0 l/m 2 min 0 min 380 W/m 16,7 km/h (3 Bft) 95,65 %
26.05.2016 17:16 23,1 C 25,6 C 21,7 C 50 % 0 lf 1014,6 hPa 0,0 l/m 2 min 0 min 347 W/m 18,8 km/h (3 Bft) 95,74 %
26.05.2016 17:18 23,0 C 25,6 C 21,7 C 50 % 0 lf 1014,6 hPa 0,0 l/m 2 min 0 min 347 W/m 10,5 km/h (2 Bft) 95,74 %
26.05.2016 17:20 22,9 C 25,6 C 21,7 C 50 % 0 lf 1014,5 hPa 0,0 l/m 2 min 0 min 415 W/m 18,8 km/h (3 Bft) 93,62 %
26.05.2016 17:22 22,8 C 25,0 C 21,7 C 51 % 0 lf 1014,5 hPa 0,0 l/m 2 min 0 min 463 W/m 16,7 km/h (3 Bft) 93,62 %
26.05.2016 17:24 22,8 C 25,6 C 21,7 C 51 % 0 lf 1014,5 hPa 0,0 l/m 2 min 0 min 436 W/m 10,5 km/h (2 Bft) 93,62 %
26.05.2016 17:26 22,7 C 25,6 C 21,7 C 52 % 0 lf 1014,5 hPa 0,0 l/m 2 min 0 min 427 W/m 10,5 km/h (2 Bft) 97,87 %
26.05.2016 17:28 22,7 C 25,6 C 21,7 C 51 % 0 lf 1014,7 hPa 0,0 l/m 2 min 0 min 445 W/m 8,4 km/h (2 Bft) 97,83 %
26.05.2016 17:30 22,6 C 25,6 C 21,7 C 51 % 0 lf 1014,5 hPa 0,0 l/m 2 min 0 min 381 W/m 10,5 km/h (2 Bft) 95,74 %
26.05.2016 17:32 22,6 C 25,6 C 22,2 C 52 % 0 lf 1014,5 hPa 0,0 l/m 2 min 0 min 361 W/m 4,2 km/h (1 Bft) 89,36 %
26.05.2016 17:34 22,6 C 25,0 C 22,2 C 51 % 0 lf 1014,5 hPa 0,0 l/m 2 min 0 min 420 W/m 10,5 km/h (2 Bft) 95,74 %
26.05.2016 17:36 22,6 C 25,0 C 22,2 C 51 % 0 lf 1014,5 hPa 0,0 l/m 2 min 0 min 403 W/m 6,3 km/h (2 Bft) 97,87 %
26.05.2016 17:38 22,6 C 25,0 C 21,7 C 51 % 0 lf 1014,5 hPa 0,0 l/m 2 min 0 min 316 W/m 8,4 km/h (2 Bft) 97,83 %
26.05.2016 17:40 22,6 C 25,0 C 21,7 C 50 % 0 lf 1014,4 hPa 0,0 l/m 2 min 0 min 346 W/m 4,2 km/h (1 Bft) 95,74 %
26.05.2016 17:42 22,6 C 25,0 C 21,7 C 51 % 0 lf 1014,4 hPa 0,0 l/m 2 min 0 min 398 W/m 10,5 km/h (2 Bft) 91,49 %
26.05.2016 17:44 22,6 C 23,9 C 21,7 C 50 % 0 lf 1014,4 hPa 0,0 l/m 2 min 0 min 348 W/m 8,4 km/h (2 Bft) 97,87 %
26.05.2016 17:46 22,6 C 23,9 C 21,7 C 51 % 0 lf 1014,3 hPa 0,0 l/m 2 min 0 min 319 W/m 14,6 km/h (3 Bft) 97,87 %
26.05.2016 17:48 22,6 C 23,9 C 21,7 C 51 % 0 lf 1014,2 hPa 0,0 l/m 2 min 0 min 314 W/m 16,7 km/h (3 Bft) 100,00 %
26.05.2016 17:50 22,6 C 24,4 C 21,7 C 52 % 0 lf 1014,2 hPa 0,0 l/m 2 min 0 min 401 W/m 18,8 km/h (3 Bft) 95,65 %
26.05.2016 17:52 22,6 C 23,9 C 21,7 C 52 % 0 lf 1014,2 hPa 0,0 l/m 2 min 0 min 328 W/m 18,8 km/h (3 Bft) 93,62 %
26.05.2016 17:54 22,5 C 23,3 C 21,1 C 51 % 0 lf 1014,1 hPa 0,0 l/m 2 min 0 min 356 W/m 16,7 km/h (3 Bft) 95,74 %
26.05.2016 17:56 22,4 C 23,3 C 21,1 C 51 % 0 lf 1014,1 hPa 0,0 l/m 2 min 0 min 428 W/m 16,7 km/h (3 Bft) 93,62 %
26.05.2016 17:58 22,3 C 23,3 C 21,1 C 52 % 0 lf 1014,0 hPa 0,0 l/m 2 min 0 min 421 W/m 16,7 km/h (3 Bft) 97,87 %
26.05.2016 18:00 22,2 C 23,3 C 21,1 C 51 % 0 lf 1014,0 hPa 0,0 l/m 2 min 0 min 390 W/m 16,7 km/h (3 Bft) 95,65 %
26.05.2016 18:02 22,2 C 23,3 C 21,1 C 52 % 0 lf 1014,1 hPa 0,0 l/m 2 min 0 min 358 W/m 14,6 km/h (3 Bft) 97,87 %
26.05.2016 18:04 22,1 C 23,3 C 21,1 C 52 % 0 lf 1014,1 hPa 0,0 l/m 2 min 0 min 399 W/m 12,6 km/h (3 Bft) 97,87 %
26.05.2016 18:06 22,1 C 23,9 C 21,1 C 53 % 0 lf 1014,2 hPa 0,0 l/m 2 min 0 min 390 W/m 12,6 km/h (3 Bft) 95,74 %
26.05.2016 18:08 22,1 C 23,9 C 21,1 C 52 % 0 lf 1014,2 hPa 0,0 l/m 2 min 0 min 339 W/m 8,4 km/h (2 Bft) 97,87 %
26.05.2016 18:10 22,1 C 23,3 C 21,1 C 53 % 0 lf 1014,1 hPa 0,0 l/m 2 min 0 min 399 W/m 8,4 km/h (2 Bft) 97,87 %
26.05.2016 18:12 22,1 C 23,9 C 21,7 C 54 % 0 lf 1014,1 hPa 0,0 l/m 2 min 0 min 377 W/m 10,5 km/h (2 Bft) 95,65 %
26.05.2016 18:14 22,1 C 23,9 C 21,1 C 54 % 0 lf 1014,1 hPa 0,0 l/m 2 min 0 min 320 W/m 10,5 km/h (2 Bft) 97,87 %
26.05.2016 18:16 22,1 C 23,9 C 21,1 C 53 % 0 lf 1014,2 hPa 0,0 l/m 2 min 0 min 307 W/m 10,5 km/h (2 Bft) 95,74 %
26.05.2016 18:18 22,0 C 23,3 C 21,1 C 52 % 0 lf 1014,1 hPa 0,0 l/m 2 min 0 min 265 W/m 16,7 km/h (3 Bft) 97,87 %
26.05.2016 18:20 22,0 C 23,3 C 21,1 C 52 % 0 lf 1014,1 hPa 0,0 l/m 0 min 0 min 201 W/m 12,6 km/h (3 Bft) 95,74 %
26.05.2016 18:22 21,9 C 23,3 C 21,1 C 53 % 0 lf 1014,2 hPa 0,0 l/m 0 min 0 min 190 W/m 16,7 km/h (3 Bft) 95,74 %
26.05.2016 18:24 21,9 C 22,8 C 20,6 C 52 % 0 lf 1014,2 hPa 0,0 l/m 2 min 0 min 245 W/m 14,6 km/h (3 Bft) 95,65 %
26.05.2016 18:26 21,9 C 22,8 C 20,6 C 53 % 0 lf 1014,2 hPa 0,0 l/m 2 min 0 min 240 W/m 14,6 km/h (3 Bft) 95,74 %
26.05.2016 18:28 21,8 C 22,8 C 20,6 C 53 % 0 lf 1014,2 hPa 0,0 l/m 2 min 0 min 251 W/m 12,6 km/h (3 Bft) 93,62 %
26.05.2016 18:30 21,8 C 22,8 C 20,6 C 52 % 0 lf 1014,1 hPa 0,0 l/m 2 min 0 min 238 W/m 14,6 km/h (3 Bft) 95,74 %
26.05.2016 18:32 21,8 C 22,8 C 20,6 C 53 % 0 lf 1014,1 hPa 0,0 l/m 2 min 0 min 261 W/m 12,6 km/h (3 Bft) 95,74 %
26.05.2016 18:34 21,7 C 22,8 C 20,6 C 53 % 0 lf 1014,1 hPa 0,0 l/m 2 min 0 min 264 W/m 14,6 km/h (3 Bft) 95,74 %
26.05.2016 18:36 21,7 C 22,8 C 21,1 C 54 % 0 lf 1014,0 hPa 0,0 l/m 2 min 0 min 270 W/m 8,4 km/h (2 Bft) 97,83 %
26.05.2016 18:38 21,7 C 22,8 C 21,1 C 53 % 0 lf 1014,0 hPa 0,0 l/m 2 min 0 min 278 W/m 10,5 km/h (2 Bft) 95,74 %
26.05.2016 18:40 21,7 C 22,8 C 21,1 C 55 % 0 lf 1014,0 hPa 0,0 l/m 2 min 0 min 261 W/m 12,6 km/h (3 Bft) 97,87 %
26.05.2016 18:42 21,7 C 22,8 C 20,6 C 54 % 0 lf 1014,0 hPa 0,0 l/m 2 min 0 min 308 W/m 14,6 km/h (3 Bft) 93,62 %
26.05.2016 18:44 21,6 C 22,8 C 20,6 C 53 % 0 lf 1014,0 hPa 0,0 l/m 2 min 0 min 273 W/m 12,6 km/h (3 Bft) 97,87 %
26.05.2016 18:46 21,6 C 22,8 C 20,6 C 53 % 0 lf 1013,9 hPa 0,0 l/m 2 min 0 min 207 W/m 10,5 km/h (2 Bft) 97,87 %
26.05.2016 18:48 21,6 C 22,8 C 20,6 C 53 % 0 lf 1013,9 hPa 0,0 l/m 2 min 0 min 213 W/m 14,6 km/h (3 Bft) 95,65 %
26.05.2016 18:50 21,6 C 22,8 C 20,6 C 54 % 0 lf 1013,9 hPa 0,0 l/m 2 min 0 min 231 W/m 10,5 km/h (2 Bft) 93,62 %
26.05.2016 18:52 21,6 C 22,8 C 20,6 C 54 % 0 lf 1013,8 hPa 0,0 l/m 2 min 0 min 243 W/m 12,6 km/h (3 Bft) 97,87 %
26.05.2016 18:54 21,6 C 22,8 C 20,6 C 54 % 0 lf 1013,9 hPa 0,0 l/m 2 min 0 min 250 W/m 12,6 km/h (3 Bft) 97,87 %
26.05.2016 18:56 21,6 C 22,8 C 20,6 C 54 % 0 lf 1013,9 hPa 0,0 l/m 2 min 0 min 236 W/m 10,5 km/h (2 Bft) 97,87 %
26.05.2016 18:58 21,6 C 22,8 C 20,6 C 56 % 0 lf 1013,9 hPa 0,0 l/m 2 min 0 min 229 W/m 12,6 km/h (3 Bft) 95,74 %
26.05.2016 19:00 21,6 C 22,2 C 20,6 C 55 % 0 lf 1013,9 hPa 0,0 l/m 2 min 0 min 211 W/m 16,7 km/h (3 Bft) 95,65 %
26.05.2016 19:02 21,5 C 22,2 C 20,6 C 55 % 0 lf 1013,9 hPa 0,0 l/m 2 min 0 min 203 W/m 16,7 km/h (3 Bft) 95,74 %
26.05.2016 19:04 21,5 C 22,2 C 20,6 C 55 % 0 lf 1013,8 hPa 0,0 l/m 2 min 0 min 197 W/m 14,6 km/h (3 Bft) 100,00 %
26.05.2016 19:06 21,5 C 22,2 C 20,6 C 55 % 0 lf 1013,8 hPa 0,0 l/m 2 min 0 min 174 W/m 14,6 km/h (3 Bft) 97,87 %
26.05.2016 19:08 21,4 C 22,2 C 20,6 C 55 % 0 lf 1013,7 hPa 0,0 l/m 0 min 0 min 155 W/m 10,5 km/h (2 Bft) 95,74 %
26.05.2016 19:10 21,4 C 22,2 C 20,6 C 55 % 0 lf 1013,8 hPa 0,0 l/m 0 min 0 min 150 W/m 16,7 km/h (3 Bft) 97,87 %
26.05.2016 19:12 21,4 C 22,2 C 20,0 C 55 % 0 lf 1013,8 hPa 0,0 l/m 0 min 0 min 155 W/m 16,7 km/h (3 Bft) 97,83 %
26.05.2016 19:14 21,4 C 21,7 C 20,0 C 55 % 0 lf 1013,8 hPa 0,0 l/m 2 min 0 min 164 W/m 16,7 km/h (3 Bft) 91,49 %
26.05.2016 19:16 21,4 C 21,7 C 20,0 C 55 % 0 lf 1013,9 hPa 0,0 l/m 2 min 0 min 167 W/m 14,6 km/h (3 Bft) 95,74 %
26.05.2016 19:18 21,3 C 21,7 C 20,0 C 55 % 0 lf 1013,9 hPa 0,0 l/m 2 min 0 min 165 W/m 12,6 km/h (3 Bft) 93,62 %
26.05.2016 19:20 21,3 C 21,7 C 20,0 C 56 % 0 lf 1013,9 hPa 0,0 l/m 2 min 0 min 155 W/m 16,7 km/h (3 Bft) 97,87 %
26.05.2016 19:22 21,3 C 21,7 C 20,0 C 56 % 0 lf 1013,8 hPa 0,0 l/m 2 min 0 min 154 W/m 16,7 km/h (3 Bft) 97,83 %
26.05.2016 19:24 21,3 C 21,7 C 20,0 C 56 % 0 lf 1013,9 hPa 0,0 l/m 2 min 0 min 157 W/m 16,7 km/h (3 Bft) 97,87 %
26.05.2016 19:26 21,2 C 21,7 C 20,0 C 57 % 0 lf 1014,0 hPa 0,0 l/m 2 min 0 min 161 W/m 14,6 km/h (3 Bft) 97,87 %
26.05.2016 19:28 21,2 C 21,7 C 20,0 C 57 % 0 lf 1014,0 hPa 0,0 l/m 2 min 0 min 156 W/m 14,6 km/h (3 Bft) 95,74 %
26.05.2016 19:30 21,2 C 21,7 C 20,0 C 58 % 0 lf 1014,0 hPa 0,0 l/m 2 min 0 min 151 W/m 14,6 km/h (3 Bft) 95,74 %
26.05.2016 19:32 21,1 C 21,7 C 20,0 C 58 % 0 lf 1014,0 hPa 0,0 l/m 2 min 0 min 142 W/m 14,6 km/h (3 Bft) 97,87 %
26.05.2016 19:34 21,1 C 21,1 C 20,0 C 58 % 0 lf 1014,0 hPa 0,0 l/m 2 min 0 min 141 W/m 16,7 km/h (3 Bft) 97,83 %
26.05.2016 19:36 21,0 C 21,1 C 19,4 C 57 % 0 lf 1014,0 hPa 0,0 l/m 2 min 0 min 132 W/m 16,7 km/h (3 Bft) 95,74 %
26.05.2016 19:38 21,0 C 21,1 C 19,4 C 57 % 0 lf 1014,0 hPa 0,0 l/m 2 min 0 min 129 W/m 18,8 km/h (3 Bft) 97,87 %
26.05.2016 19:40 20,9 C 21,1 C 19,4 C 58 % 0 lf 1013,9 hPa 0,0 l/m 0 min 0 min 123 W/m 16,7 km/h (3 Bft) 95,74 %
26.05.2016 19:42 20,9 C 21,1 C 19,4 C 58 % 0 lf 1013,9 hPa 0,0 l/m 0 min 0 min 112 W/m 14,6 km/h (3 Bft) 97,87 %
26.05.2016 19:44 20,8 C 21,1 C 19,4 C 58 % 0 lf 1014,0 hPa 0,0 l/m 0 min 0 min 104 W/m 14,6 km/h (3 Bft) 97,87 %
26.05.2016 19:46 20,8 C 20,6 C 19,4 C 58 % 0 lf 1014,1 hPa 0,0 l/m 0 min 0 min 102 W/m 18,8 km/h (3 Bft) 93,48 %
26.05.2016 19:48 20,7 C 20,6 C 19,4 C 58 % 0 lf 1014,1 hPa 0,0 l/m 0 min 0 min 100 W/m 14,6 km/h (3 Bft) 93,62 %
26.05.2016 19:50 20,7 C 20,6 C 19,4 C 59 % 0 lf 1014,1 hPa 0,0 l/m 0 min 0 min 95 W/m 14,6 km/h (3 Bft) 93,62 %
26.05.2016 19:52 20,7 C 20,6 C 19,4 C 59 % 0 lf 1014,1 hPa 0,0 l/m 0 min 0 min 91 W/m 14,6 km/h (3 Bft) 97,87 %
26.05.2016 19:54 20,6 C 20,6 C 18,9 C 58 % 0 lf 1014,2 hPa 0,0 l/m 0 min 0 min 86 W/m 16,7 km/h (3 Bft) 95,74 %
26.05.2016 19:56 20,6 C 20,6 C 18,9 C 59 % 0 lf 1014,1 hPa 0,0 l/m 0 min 0 min 84 W/m 16,7 km/h (3 Bft) 95,74 %
26.05.2016 19:58 20,6 C 20,6 C 18,9 C 59 % 0 lf 1014,1 hPa 0,0 l/m 0 min 0 min 83 W/m 14,6 km/h (3 Bft) 93,48 %
26.05.2016 20:00 20,5 C 20,6 C 18,9 C 59 % 0 lf 1014,1 hPa 0,0 l/m 0 min 0 min 83 W/m 14,6 km/h (3 Bft) 95,74 %
26.05.2016 20:02 20,5 C 20,6 C 18,9 C 60 % 0 lf 1014,0 hPa 0,0 l/m 0 min 0 min 83 W/m 12,6 km/h (3 Bft) 95,74 %
26.05.2016 20:04 20,4 C 20,6 C 18,9 C 60 % 0 lf 1013,9 hPa 0,0 l/m 0 min 0 min 82 W/m 12,6 km/h (3 Bft) 93,62 %
26.05.2016 20:06 20,4 C 20,6 C 18,9 C 60 % 0 lf 1014,0 hPa 0,0 l/m 0 min 0 min 79 W/m 14,6 km/h (3 Bft) 93,62 %
26.05.2016 20:08 20,3 C 20,0 C 18,9 C 60 % 0 lf 1014,0 hPa 0,0 l/m 0 min 0 min 76 W/m 16,7 km/h (3 Bft) 95,74 %
26.05.2016 20:10 20,3 C 20,0 C 18,9 C 60 % 0 lf 1013,9 hPa 0,0 l/m 0 min 0 min 71 W/m 14,6 km/h (3 Bft) 95,65 %
26.05.2016 20:12 20,3 C 20,0 C 18,9 C 60 % 0 lf 1013,9 hPa 0,0 l/m 0 min 0 min 68 W/m 16,7 km/h (3 Bft) 95,74 %
26.05.2016 20:14 20,2 C 20,0 C 18,9 C 61 % 0 lf 1013,9 hPa 0,0 l/m 0 min 0 min 65 W/m 18,8 km/h (3 Bft) 95,74 %
26.05.2016 20:16 20,2 C 20,0 C 18,3 C 61 % 0 lf 1013,9 hPa 0,0 l/m 0 min 0 min 63 W/m 16,7 km/h (3 Bft) 97,87 %
26.05.2016 20:18 20,1 C 20,0 C 18,3 C 61 % 0 lf 1013,9 hPa 0,0 l/m 0 min 0 min 61 W/m 16,7 km/h (3 Bft) 97,87 %
26.05.2016 20:20 20,1 C 20,0 C 18,3 C 61 % 0 lf 1014,0 hPa 0,0 l/m 0 min 0 min 59 W/m 14,6 km/h (3 Bft) 93,62 %
26.05.2016 20:22 20,1 C 20,0 C 18,3 C 61 % 0 lf 1014,0 hPa 0,0 l/m 0 min 0 min 56 W/m 10,5 km/h (2 Bft) 97,83 %
26.05.2016 20:24 20,0 C 20,0 C 18,3 C 61 % 0 lf 1014,0 hPa 0,0 l/m 0 min 0 min 54 W/m 12,6 km/h (3 Bft) 93,62 %
26.05.2016 20:26 19,9 C 20,0 C 18,3 C 61 % 0 lf 1014,0 hPa 0,0 l/m 0 min 0 min 53 W/m 16,7 km/h (3 Bft) 97,87 %
26.05.2016 20:28 19,9 C 19,4 C 18,3 C 61 % 0 lf 1014,0 hPa 0,0 l/m 0 min 0 min 52 W/m 14,6 km/h (3 Bft) 97,87 %
26.05.2016 20:30 19,9 C 19,4 C 18,3 C 62 % 0 lf 1014,1 hPa 0,0 l/m 0 min 0 min 50 W/m 12,6 km/h (3 Bft) 97,87 %
26.05.2016 20:32 19,8 C 19,4 C 18,3 C 62 % 0 lf 1014,1 hPa 0,0 l/m 0 min 0 min 47 W/m 14,6 km/h (3 Bft) 95,65 %
26.05.2016 20:34 19,8 C 19,4 C 18,3 C 62 % 0 lf 1014,1 hPa 0,0 l/m 0 min 0 min 44 W/m 14,6 km/h (3 Bft) 95,74 %
26.05.2016 20:36 19,8 C 19,4 C 18,3 C 62 % 0 lf 1014,1 hPa 0,0 l/m 0 min 0 min 45 W/m 16,7 km/h (3 Bft) 97,87 %
26.05.2016 20:38 19,7 C 19,4 C 18,3 C 62 % 0 lf 1014,1 hPa 0,0 l/m 0 min 0 min 44 W/m 14,6 km/h (3 Bft) 95,74 %
26.05.2016 20:40 19,7 C 19,4 C 17,8 C 62 % 0 lf 1013,9 hPa 0,0 l/m 0 min 0 min 42 W/m 14,6 km/h (3 Bft) 91,49 %
26.05.2016 20:42 19,6 C 19,4 C 17,8 C 62 % 0 lf 1013,9 hPa 0,0 l/m 0 min 0 min 42 W/m 10,5 km/h (2 Bft) 93,62 %
26.05.2016 20:44 19,6 C 18,9 C 17,8 C 62 % 0 lf 1013,9 hPa 0,0 l/m 0 min 0 min 40 W/m 12,6 km/h (3 Bft) 97,83 %
26.05.2016 20:46 19,6 C 18,9 C 17,8 C 63 % 0 lf 1014,0 hPa 0,0 l/m 0 min 0 min 40 W/m 10,5 km/h (2 Bft) 93,62 %
26.05.2016 20:48 19,5 C 18,9 C 17,8 C 63 % 0 lf 1014,0 hPa 0,0 l/m 0 min 0 min 38 W/m 10,5 km/h (2 Bft) 93,62 %
26.05.2016 20:50 19,4 C 18,9 C 17,8 C 63 % 0 lf 1014,0 hPa 0,0 l/m 0 min 0 min 34 W/m 14,6 km/h (3 Bft) 93,62 %
26.05.2016 20:52 19,4 C 18,9 C 17,8 C 63 % 0 lf 1014,0 hPa 0,0 l/m 0 min 0 min 32 W/m 16,7 km/h (3 Bft) 93,62 %
26.05.2016 20:54 19,4 C 18,9 C 17,8 C 63 % 0 lf 1014,0 hPa 0,0 l/m 0 min 0 min 32 W/m 16,7 km/h (3 Bft) 97,87 %
26.05.2016 20:56 19,3 C 18,9 C 17,8 C 63 % 0 lf 1014,0 hPa 0,0 l/m 0 min 0 min 30 W/m 10,5 km/h (2 Bft) 95,65 %
26.05.2016 20:58 19,3 C 18,9 C 17,8 C 63 % 0 lf 1014,0 hPa 0,0 l/m 0 min 0 min 32 W/m 14,6 km/h (3 Bft) 93,62 %
26.05.2016 21:00 19,3 C 18,9 C 17,2 C 63 % 0 lf 1014,0 hPa 0,0 l/m 2 min 0 min 32 W/m 16,7 km/h (3 Bft) 93,62 %
26.05.2016 21:02 19,2 C 18,9 C 17,8 C 64 % 0 lf 1014,0 hPa 0,0 l/m 2 min 0 min 32 W/m 16,7 km/h (3 Bft) 93,62 %
26.05.2016 21:04 19,2 C 18,9 C 17,8 C 64 % 0 lf 1014,0 hPa 0,0 l/m 2 min 0 min 31 W/m 10,5 km/h (2 Bft) 95,74 %
26.05.2016 21:06 19,2 C 18,9 C 17,8 C 64 % 0 lf 1014,1 hPa 0,0 l/m 2 min 0 min 28 W/m 16,7 km/h (3 Bft) 93,62 %
26.05.2016 21:08 19,1 C 18,9 C 17,2 C 64 % 0 lf 1014,0 hPa 0,0 l/m 2 min 0 min 26 W/m 10,5 km/h (2 Bft) 95,65 %
26.05.2016 21:10 19,1 C 18,9 C 17,2 C 64 % 0 lf 1014,0 hPa 0,0 l/m 2 min 0 min 22 W/m 14,6 km/h (3 Bft) 95,74 %
26.05.2016 21:12 19,0 C 18,9 C 17,2 C 64 % 0 lf 1014,1 hPa 0,0 l/m 2 min 0 min 20 W/m 12,6 km/h (3 Bft) 91,49 %
26.05.2016 21:14 19,0 C 18,3 C 17,2 C 64 % 0 lf 1014,0 hPa 0,0 l/m 2 min 0 min 19 W/m 14,6 km/h (3 Bft) 93,62 %
26.05.2016 21:16 18,9 C 18,3 C 17,2 C 64 % 0 lf 1014,0 hPa 0,0 l/m 0 min 0 min 18 W/m 10,5 km/h (2 Bft) 89,36 %
26.05.2016 21:18 18,9 C 18,3 C 17,2 C 65 % 0 lf 1014,0 hPa 0,0 l/m 0 min 0 min 16 W/m 10,5 km/h (2 Bft) 97,87 %
26.05.2016 21:20 18,9 C 18,3 C 17,2 C 65 % 0 lf 1014,2 hPa 0,0 l/m 0 min 0 min 15 W/m 14,6 km/h (3 Bft) 97,83 %
26.05.2016 21:22 18,9 C 18,3 C 17,2 C 65 % 0 lf 1014,2 hPa 0,0 l/m 0 min 0 min 13 W/m 8,4 km/h (2 Bft) 95,74 %
26.05.2016 21:24 18,8 C 18,3 C 17,2 C 65 % 0 lf 1014,2 hPa 0,0 l/m 0 min 0 min 11 W/m 8,4 km/h (2 Bft) 97,87 %
26.05.2016 21:26 18,8 C 18,3 C 17,2 C 65 % 0 lf 1014,2 hPa 0,0 l/m 0 min 0 min 10 W/m 8,4 km/h (2 Bft) 97,87 %
26.05.2016 21:28 18,8 C 18,3 C 16,7 C 65 % 0 lf 1014,3 hPa 0,0 l/m 0 min 0 min 9 W/m 8,4 km/h (2 Bft) 97,87 %
26.05.2016 21:30 18,8 C 18,3 C 16,7 C 66 % 0 lf 1014,3 hPa 0,0 l/m 0 min 0 min 7 W/m 8,4 km/h (2 Bft) 95,74 %
26.05.2016 21:32 18,7 C 18,3 C 16,7 C 66 % 0 lf 1014,3 hPa 0,0 l/m 0 min 0 min 7 W/m 10,5 km/h (2 Bft) 91,30 %
26.05.2016 21:34 18,7 C 18,3 C 16,7 C 66 % 0 lf 1014,3 hPa 0,0 l/m 0 min 0 min 7 W/m 10,5 km/h (2 Bft) 95,74 %
26.05.2016 21:36 18,7 C 18,3 C 16,7 C 66 % 0 lf 1014,4 hPa 0,0 l/m 0 min 0 min 5 W/m 6,3 km/h (2 Bft) 95,74 %
26.05.2016 21:38 18,7 C 17,8 C 16,7 C 66 % 0 lf 1014,4 hPa 0,0 l/m 0 min 0 min 5 W/m 8,4 km/h (2 Bft) 97,87 %
26.05.2016 21:40 18,6 C 17,8 C 16,7 C 66 % 0 lf 1014,4 hPa 0,0 l/m 0 min 0 min 2 W/m 10,5 km/h (2 Bft) 97,87 %
26.05.2016 21:42 18,6 C 17,8 C 16,7 C 66 % 0 lf 1014,4 hPa 0,0 l/m 0 min 0 min 0 W/m 8,4 km/h (2 Bft) 95,74 %
26.05.2016 21:44 18,6 C 17,8 C 16,7 C 66 % 0 lf 1014,4 hPa 0,0 l/m 0 min 0 min 0 W/m 6,3 km/h (2 Bft) 95,65 %
26.05.2016 21:46 18,6 C 17,8 C 16,7 C 66 % 0 lf 1014,4 hPa 0,0 l/m 0 min 0 min 0 W/m 10,5 km/h (2 Bft) 97,87 %
26.05.2016 21:48 18,5 C 17,8 C 16,7 C 66 % 0 lf 1014,5 hPa 0,0 l/m 0 min 0 min 0 W/m 8,4 km/h (2 Bft) 95,74 %
26.05.2016 21:50 18,5 C 17,8 C 16,7 C 66 % 0 lf 1014,4 hPa 0,0 l/m 0 min 0 min 0 W/m 10,5 km/h (2 Bft) 97,87 %
26.05.2016 21:52 18,4 C 17,8 C 16,7 C 67 % 0 lf 1014,5 hPa 0,0 l/m 0 min 0 min 0 W/m 10,5 km/h (2 Bft) 100,00 %
26.05.2016 21:54 18,4 C 17,8 C 16,7 C 67 % 0 lf 1014,6 hPa 0,0 l/m 0 min 0 min 0 W/m 10,5 km/h (2 Bft) 100,00 %
26.05.2016 21:56 18,4 C 17,8 C 16,7 C 67 % 0 lf 1014,5 hPa 0,0 l/m 0 min 0 min 0 W/m 10,5 km/h (2 Bft) 100,00 %
26.05.2016 21:58 18,3 C 17,8 C 16,7 C 67 % 0 lf 1014,6 hPa 0,0 l/m 0 min 0 min 0 W/m 10,5 km/h (2 Bft) 95,74 %
26.05.2016 22:00 18,3 C 17,8 C 16,7 C 67 % 0 lf 1014,6 hPa 0,0 l/m 0 min 0 min 0 W/m 10,5 km/h (2 Bft) 95,74 %
26.05.2016 22:02 18,3 C 17,8 C 16,7 C 67 % 0 lf 1014,6 hPa 0,0 l/m 0 min 0 min 0 W/m 12,6 km/h (3 Bft) 97,87 %
26.05.2016 22:04 18,3 C 17,8 C 16,7 C 67 % 0 lf 1014,6 hPa 0,0 l/m 0 min 0 min 0 W/m 12,6 km/h (3 Bft) 93,62 %
26.05.2016 22:06 18,3 C 17,8 C 16,7 C 67 % 0 lf 1014,6 hPa 0,0 l/m 0 min 0 min 0 W/m 10,5 km/h (2 Bft) 95,65 %
26.05.2016 22:08 18,2 C 17,8 C 16,7 C 68 % 0 lf 1014,6 hPa 0,0 l/m 0 min 0 min 0 W/m 10,5 km/h (2 Bft) 95,74 %
26.05.2016 22:10 18,2 C 17,8 C 16,7 C 68 % 0 lf 1014,6 hPa 0,0 l/m 0 min 0 min 0 W/m 12,6 km/h (3 Bft) 97,87 %
26.05.2016 22:12 18,2 C 17,8 C 16,7 C 68 % 0 lf 1014,5 hPa 0,0 l/m 0 min 0 min 0 W/m 10,5 km/h (2 Bft) 97,87 %
26.05.2016 22:14 18,2 C 17,8 C 16,7 C 68 % 0 lf 1014,5 hPa 0,0 l/m 0 min 0 min 0 W/m 10,5 km/h (2 Bft) 95,74 %
26.05.2016 22:16 18,2 C 17,8 C 16,7 C 68 % 0 lf 1014,5 hPa 0,0 l/m 0 min 0 min 0 W/m 10,5 km/h (2 Bft) 97,87 %
26.05.2016 22:18 18,1 C 17,8 C 16,7 C 68 % 0 lf 1014,5 hPa 0,0 l/m 0 min 0 min 0 W/m 10,5 km/h (2 Bft) 95,65 %
26.05.2016 22:20 18,1 C 17,8 C 16,7 C 68 % 0 lf 1014,4 hPa 0,0 l/m 0 min 0 min 0 W/m 10,5 km/h (2 Bft) 97,87 %
26.05.2016 22:22 18,1 C 17,8 C 16,1 C 68 % 0 lf 1014,5 hPa 0,0 l/m 0 min 0 min 0 W/m 14,6 km/h (3 Bft) 95,74 %
26.05.2016 22:24 18,1 C 17,8 C 16,1 C 68 % 0 lf 1014,4 hPa 0,0 l/m 0 min 0 min 0 W/m 12,6 km/h (3 Bft) 95,74 %
26.05.2016 22:26 18,1 C 17,8 C 16,1 C 68 % 0 lf 1014,4 hPa 0,0 l/m 0 min 0 min 0 W/m 10,5 km/h (2 Bft) 97,87 %
26.05.2016 22:28 18,1 C 17,2 C 16,1 C 68 % 0 lf 1014,5 hPa 0,0 l/m 0 min 0 min 0 W/m 8,4 km/h (2 Bft) 97,87 %
26.05.2016 22:30 18,0 C 17,2 C 16,1 C 68 % 0 lf 1014,4 hPa 0,0 l/m 0 min 0 min 0 W/m 12,6 km/h (3 Bft) 97,83 %
26.05.2016 22:32 18,0 C 17,2 C 16,1 C 68 % 0 lf 1014,4 hPa 0,0 l/m 0 min 0 min 0 W/m 12,6 km/h (3 Bft) 97,87 %
26.05.2016 22:34 17,9 C 17,2 C 16,1 C 69 % 0 lf 1014,4 hPa 0,0 l/m 0 min 0 min 0 W/m 8,4 km/h (2 Bft) 97,87 %
26.05.2016 22:36 17,9 C 17,2 C 16,1 C 69 % 0 lf 1014,4 hPa 0,0 l/m 0 min 0 min 0 W/m 10,5 km/h (2 Bft) 95,74 %
26.05.2016 22:38 17,9 C 17,2 C 16,1 C 69 % 0 lf 1014,4 hPa 0,0 l/m 0 min 0 min 0 W/m 8,4 km/h (2 Bft) 97,87 %
26.05.2016 22:40 17,9 C 17,2 C 16,1 C 69 % 0 lf 1014,4 hPa 0,0 l/m 0 min 0 min 0 W/m 8,4 km/h (2 Bft) 93,62 %
26.05.2016 22:42 17,8 C 17,2 C 15,6 C 69 % 0 lf 1014,4 hPa 0,0 l/m 0 min 0 min 0 W/m 8,4 km/h (2 Bft) 97,83 %
26.05.2016 22:44 17,8 C 16,7 C 15,6 C 69 % 0 lf 1014,4 hPa 0,0 l/m 0 min 0 min 0 W/m 10,5 km/h (2 Bft) 95,74 %
26.05.2016 22:46 17,8 C 16,7 C 15,6 C 69 % 0 lf 1014,4 hPa 0,0 l/m 0 min 0 min 0 W/m 10,5 km/h (2 Bft) 97,87 %
26.05.2016 22:48 17,8 C 16,7 C 15,6 C 69 % 0 lf 1014,4 hPa 0,0 l/m 0 min 0 min 0 W/m 10,5 km/h (2 Bft) 97,87 %
26.05.2016 22:50 17,7 C 16,7 C 15,6 C 69 % 0 lf 1014,4 hPa 0,0 l/m 0 min 0 min 0 W/m 6,3 km/h (2 Bft) 95,74 %
26.05.2016 22:52 17,7 C 16,7 C 15,0 C 70 % 0 lf 1014,4 hPa 0,0 l/m 0 min 0 min 0 W/m 8,4 km/h (2 Bft) 97,87 %
26.05.2016 22:54 17,7 C 16,7 C 15,6 C 70 % 0 lf 1014,5 hPa 0,0 l/m 0 min 0 min 0 W/m 8,4 km/h (2 Bft) 95,65 %
26.05.2016 22:56 17,7 C 16,7 C 15,6 C 70 % 0 lf 1014,5 hPa 0,0 l/m 0 min 0 min 0 W/m 8,4 km/h (2 Bft) 95,74 %
26.05.2016 22:58 17,6 C 16,7 C 15,0 C 70 % 0 lf 1014,5 hPa 0,0 l/m 0 min 0 min 0 W/m 8,4 km/h (2 Bft) 95,74 %
26.05.2016 23:00 17,6 C 16,7 C 15,0 C 70 % 0 lf 1014,5 hPa 0,0 l/m 0 min 0 min 0 W/m 10,5 km/h (2 Bft) 93,62 %
26.05.2016 23:02 17,6 C 16,7 C 15,0 C 70 % 0 lf 1014,5 hPa 0,0 l/m 0 min 0 min 0 W/m 12,6 km/h (3 Bft) 97,87 %
26.05.2016 23:04 17,5 C 16,7 C 15,0 C 70 % 0 lf 1014,6 hPa 0,0 l/m 0 min 0 min 0 W/m 8,4 km/h (2 Bft) 97,87 %
26.05.2016 23:06 17,5 C 16,7 C 15,6 C 70 % 0 lf 1014,6 hPa 0,0 l/m 0 min 0 min 0 W/m 10,5 km/h (2 Bft) 97,83 %
26.05.2016 23:08 17,4 C 16,7 C 15,0 C 70 % 0 lf 1014,5 hPa 0,0 l/m 0 min 0 min 0 W/m 8,4 km/h (2 Bft) 97,87 %
26.05.2016 23:10 17,4 C 16,7 C 15,0 C 71 % 0 lf 1014,5 hPa 0,0 l/m 0 min 0 min 0 W/m 8,4 km/h (2 Bft) 97,87 %
26.05.2016 23:12 17,4 C 16,7 C 15,6 C 71 % 0 lf 1014,6 hPa 0,0 l/m 0 min 0 min 0 W/m 6,3 km/h (2 Bft) 95,74 %
26.05.2016 23:14 17,4 C 16,7 C 15,6 C 71 % 0 lf 1014,5 hPa 0,0 l/m 0 min 0 min 0 W/m 10,5 km/h (2 Bft) 95,74 %
26.05.2016 23:16 17,3 C 16,7 C 15,6 C 71 % 0 lf 1014,6 hPa 0,0 l/m 0 min 0 min 0 W/m 10,5 km/h (2 Bft) 97,83 %
26.05.2016 23:18 17,3 C 16,7 C 15,6 C 71 % 0 lf 1014,6 hPa 0,0 l/m 0 min 0 min 0 W/m 10,5 km/h (2 Bft) 100,00 %
26.05.2016 23:20 17,3 C 16,7 C 15,6 C 71 % 0 lf 1014,6 hPa 0,0 l/m 0 min 0 min 0 W/m 8,4 km/h (2 Bft) 97,87 %
26.05.2016 23:22 17,3 C 16,7 C 15,6 C 71 % 0 lf 1014,6 hPa 0,0 l/m 0 min 0 min 0 W/m 8,4 km/h (2 Bft) 97,87 %
26.05.2016 23:24 17,3 C 16,7 C 15,6 C 71 % 0 lf 1014,6 hPa 0,0 l/m 0 min 0 min 0 W/m 10,5 km/h (2 Bft) 97,87 %
26.05.2016 23:26 17,2 C 16,7 C 15,6 C 71 % 0 lf 1014,7 hPa 0,0 l/m 0 min 0 min 0 W/m 8,4 km/h (2 Bft) 100,00 %
26.05.2016 23:28 17,2 C 16,7 C 15,6 C 72 % 0 lf 1014,7 hPa 0,0 l/m 0 min 0 min 0 W/m 8,4 km/h (2 Bft) 100,00 %
26.05.2016 23:30 17,2 C 16,7 C 15,6 C 72 % 0 lf 1014,7 hPa 0,0 l/m 0 min 0 min 0 W/m 8,4 km/h (2 Bft) 100,00 %
26.05.2016 23:32 17,2 C 16,7 C 15,6 C 72 % 0 lf 1014,8 hPa 0,0 l/m 0 min 0 min 0 W/m 8,4 km/h (2 Bft) 95,74 %
26.05.2016 23:34 17,2 C 16,7 C 15,6 C 72 % 0 lf 1014,7 hPa 0,0 l/m 0 min 0 min 0 W/m 8,4 km/h (2 Bft) 97,87 %
26.05.2016 23:36 17,2 C 16,7 C 15,6 C 72 % 0 lf 1014,7 hPa 0,0 l/m 0 min 0 min 0 W/m 8,4 km/h (2 Bft) 97,87 %
26.05.2016 23:38 17,2 C 16,7 C 15,6 C 72 % 0 lf 1014,7 hPa 0,0 l/m 0 min 0 min 0 W/m 8,4 km/h (2 Bft) 97,87 %
26.05.2016 23:40 17,2 C 16,7 C 15,6 C 72 % 0 lf 1014,6 hPa 0,0 l/m 0 min 0 min 0 W/m 10,5 km/h (2 Bft) 97,83 %
26.05.2016 23:42 17,2 C 16,7 C 15,6 C 72 % 0 lf 1014,6 hPa 0,0 l/m 0 min 0 min 0 W/m 8,4 km/h (2 Bft) 95,74 %
26.05.2016 23:44 17,1 C 16,7 C 15,6 C 72 % 0 lf 1014,6 hPa 0,0 l/m 0 min 0 min 0 W/m 10,5 km/h (2 Bft) 95,74 %
26.05.2016 23:46 17,1 C 16,7 C 15,6 C 73 % 0 lf 1014,6 hPa 0,0 l/m 0 min 0 min 0 W/m 8,4 km/h (2 Bft) 93,62 %
26.05.2016 23:48 17,1 C 16,7 C 15,6 C 73 % 0 lf 1014,5 hPa 0,0 l/m 0 min 0 min 0 W/m 10,5 km/h (2 Bft) 95,74 %
26.05.2016 23:50 17,1 C 16,7 C 15,6 C 72 % 0 lf 1014,5 hPa 0,0 l/m 0 min 0 min 0 W/m 6,3 km/h (2 Bft) 97,87 %
26.05.2016 23:52 17,1 C 16,7 C 15,6 C 72 % 0 lf 1014,5 hPa 0,0 l/m 0 min 0 min 0 W/m 10,5 km/h (2 Bft) 95,65 %
26.05.2016 23:54 17,1 C 16,7 C 15,6 C 73 % 0 lf 1014,5 hPa 0,0 l/m 0 min 0 min 0 W/m 10,5 km/h (2 Bft) 93,62 %
26.05.2016 23:56 17,0 C 16,7 C 15,6 C 73 % 0 lf 1014,5 hPa 0,0 l/m 0 min 0 min 0 W/m 8,4 km/h (2 Bft) 95,74 %
26.05.2016 23:58 17,0 C 16,7 C 15,6 C 73 % 0 lf 1014,5 hPa 0,0 l/m 0 min 0 min 0 W/m 8,4 km/h (2 Bft) 95,74 %
_ Min-Zeit 04:14 03:04 02:32 15:50 00:00 19:08 - - - - 00:08 10:28
Minimum _ 9,6 C 8,3 C 7,8 C 48 % 0 lf 1013,7 hPa - - - - 0,0 km/h (0 Bft) 22,22 %
_ Max-Zeit 15:46 13:00 16:00 07:40 03:28 08:56 00:00 08:00 00:00 12:34 10:48 01:08
Maximum _ 23,9 C 33,9 C 28,9 C 97 % 15 lf 1016,2 hPa 0,0 l/m 2 min 0 min 1074 W/m 23,0 km/h
S (4 Bft)
100,00 %
Durchschnitt _ 16,9 C 19,3 C 16,8 C 73 % 2 lf 1015,0 hPa #0,0 l/m #11:08 h #0 min. 456 W/m 7,8 km/h (2 Bft) 95,91 %
© 2016 W. Hausmann